| time (UTC) | temp F | wind direction | speed knots | gust knots | rain 1hr in | rain 24hr in | rain mn in | humidity % | barometer mb |
| 20260505201224 | 82 | 38 | 7.0 | 12.2 | 0.00 | 0.00 | 0.00 | 36 | 1007.4 |
| 20260505201103 | 82 | 36 | 6.1 | 12.2 | 0.00 | 0.00 | 0.00 | 36 | 1007.4 |
| 20260505201003 | 82 | 35 | 7.0 | 12.2 | 0.00 | 0.00 | 0.00 | 37 | 1007.4 |
| 20260505200924 | 82 | 35 | 6.1 | 12.2 | 0.00 | 0.00 | 0.00 | 37 | 1007.5 |
| 20260505200803 | 82 | 34 | 6.1 | 12.2 | 0.00 | 0.00 | 0.00 | 36 | 1007.5 |
| 20260505200703 | 82 | 34 | 6.1 | 12.2 | 0.00 | 0.00 | 0.00 | 36 | 1007.5 |
| 20260505200603 | 82 | 34 | 7.0 | 12.2 | 0.00 | 0.00 | 0.00 | 36 | 1007.5 |
| 20260505200503 | 82 | 35 | 7.0 | 12.2 | 0.00 | 0.00 | 0.00 | 36 | 1007.4 |
| 20260505200403 | 82 | 37 | 7.0 | 11.3 | 0.00 | 0.00 | 0.00 | 36 | 1007.5 |
| 20260505200303 | 82 | 37 | 7.0 | 11.3 | 0.00 | 0.00 | 0.00 | 35 | 1007.4 |
| 20260505200224 | 82 | 37 | 6.1 | 11.3 | 0.00 | 0.00 | 0.00 | 33 | 1007.4 |
| 20260505200103 | 82 | 37 | 6.1 | 11.3 | 0.00 | 0.00 | 0.00 | 33 | 1007.4 |
| 20260505200024 | 81 | 37 | 6.1 | 11.3 | 0.00 | 0.00 | 0.00 | 33 | 1007.4 |
| 20260505195924 | 81 | 40 | 6.1 | 11.3 | 0.00 | 0.00 | 0.00 | 33 | 1007.5 |
| 20260505195803 | 81 | 41 | 6.1 | 11.3 | 0.00 | 0.00 | 0.00 | 34 | 1007.6 |
| 20260505195703 | 81 | 41 | 6.1 | 11.3 | 0.00 | 0.00 | 0.00 | 35 | 1007.6 |
| 20260505195603 | 81 | 42 | 5.2 | 11.3 | 0.00 | 0.00 | 0.00 | 34 | 1007.7 |
| 20260505195503 | 81 | 40 | 5.2 | 11.3 | 0.00 | 0.00 | 0.00 | 34 | 1007.7 |
| 20260505195403 | 81 | 40 | 5.2 | 10.4 | 0.00 | 0.00 | 0.00 | 33 | 1007.6 |
| 20260505195305 | 81 | 41 | 5.2 | 10.4 | 0.00 | 0.00 | 0.00 | 31 | 1007.7 |
| 20260505195203 | 81 | 44 | 5.2 | 9.6 | 0.00 | 0.00 | 0.00 | 31 | 1007.7 |
| 20260505195104 | 81 | 42 | 5.2 | 9.6 | 0.00 | 0.00 | 0.00 | 32 | 1007.7 |
| 20260505195003 | 81 | 41 | 6.1 | 10.4 | 0.00 | 0.00 | 0.00 | 31 | 1007.6 |
| 20260505194903 | 81 | 38 | 6.1 | 13.9 | 0.00 | 0.00 | 0.00 | 33 | 1007.7 |
| 20260505194803 | 81 | 36 | 6.1 | 13.9 | 0.00 | 0.00 | 0.00 | 33 | 1007.6 |
| 20260505194703 | 81 | 34 | 7.0 | 13.9 | 0.00 | 0.00 | 0.00 | 33 | 1007.7 |
| 20260505194603 | 81 | 32 | 7.0 | 13.9 | 0.00 | 0.00 | 0.00 | 33 | 1007.7 |
| 20260505194503 | 81 | 33 | 7.0 | 13.9 | 0.00 | 0.00 | 0.00 | 32 | 1007.8 |
| 20260505194403 | 81 | 33 | 7.0 | 13.9 | 0.00 | 0.00 | 0.00 | 32 | 1007.7 |
| 20260505194303 | 81 | 33 | 6.1 | 13.9 | 0.00 | 0.00 | 0.00 | 31 | 1007.8 |
| 20260505194203 | 81 | 32 | 6.1 | 13.9 | 0.00 | 0.00 | 0.00 | 32 | 1007.8 |
| 20260505194104 | 81 | 35 | 6.1 | 13.9 | 0.00 | 0.00 | 0.00 | 33 | 1007.8 |
| 20260505194003 | 81 | 32 | 6.1 | 13.9 | 0.00 | 0.00 | 0.00 | 33 | 1007.8 |
| 20260505193903 | 81 | 31 | 6.1 | 13.0 | 0.00 | 0.00 | 0.00 | 33 | 1007.9 |
| 20260505193804 | 81 | 32 | 6.1 | 11.3 | 0.00 | 0.00 | 0.00 | 32 | 1007.8 |
| 20260505193724 | 81 | 34 | 6.1 | 11.3 | 0.00 | 0.00 | 0.00 | 31 | 1007.9 |
| 20260505193603 | 81 | 37 | 6.1 | 11.3 | 0.00 | 0.00 | 0.00 | 30 | 1007.8 |
| 20260505193503 | 81 | 36 | 6.1 | 11.3 | 0.00 | 0.00 | 0.00 | 30 | 1007.9 |
| 20260505193403 | 81 | 37 | 6.1 | 11.3 | 0.00 | 0.00 | 0.00 | 30 | 1007.9 |
| 20260505193303 | 81 | 37 | 6.1 | 11.3 | 0.00 | 0.00 | 0.00 | 31 | 1007.9 |
| 20260505193224 | 81 | 37 | 5.2 | 11.3 | 0.00 | 0.00 | 0.00 | 32 | 1007.9 |
| 20260505193124 | 81 | 37 | 5.2 | 11.3 | 0.00 | 0.00 | 0.00 | 32 | 1007.9 |
| 20260505193024 | 81 | 38 | 5.2 | 11.3 | 0.00 | 0.00 | 0.00 | 31 | 1007.8 |
| 20260505192924 | 81 | 41 | 5.2 | 10.4 | 0.00 | 0.00 | 0.00 | 31 | 1008.0 |
| 20260505192803 | 81 | 43 | 5.2 | 10.4 | 0.00 | 0.00 | 0.00 | 30 | 1007.9 |
| 20260505192703 | 81 | 41 | 5.2 | 12.2 | 0.00 | 0.00 | 0.00 | 30 | 1008.0 |
| 20260505192603 | 81 | 42 | 5.2 | 12.2 | 0.00 | 0.00 | 0.00 | 30 | 1007.9 |
| 20260505192503 | 81 | 43 | 5.2 | 12.2 | 0.00 | 0.00 | 0.00 | 30 | 1008.0 |
| 20260505192403 | 81 | 42 | 6.1 | 13.9 | 0.00 | 0.00 | 0.00 | 31 | 1008.0 |
| 20260505192305 | 81 | 42 | 6.1 | 13.9 | 0.00 | 0.00 | 0.00 | 30 | 1008.0 |
| 20260505192203 | 81 | 43 | 7.0 | 13.9 | 0.00 | 0.00 | 0.00 | 30 | 1008.0 |
| 20260505192103 | 81 | 43 | 7.0 | 13.9 | 0.00 | 0.00 | 0.00 | 30 | 1008.0 |
| 20260505192003 | 81 | 42 | 7.0 | 13.9 | 0.00 | 0.00 | 0.00 | 30 | 1008.1 |
| 20260505191903 | 81 | 41 | 7.0 | 13.9 | 0.00 | 0.00 | 0.00 | 31 | 1008.0 |
| 20260505191803 | 81 | 42 | 7.0 | 13.9 | 0.00 | 0.00 | 0.00 | 31 | 1008.0 |
| 20260505191703 | 81 | 41 | 7.0 | 13.9 | 0.00 | 0.00 | 0.00 | 28 | 1008.0 |
| 20260505191603 | 81 | 40 | 7.8 | 13.9 | 0.00 | 0.00 | 0.00 | 30 | 1008.0 |
| 20260505191503 | 81 | 40 | 7.0 | 13.9 | 0.00 | 0.00 | 0.00 | 30 | 1007.9 |
| 20260505191403 | 81 | 38 | 7.0 | 13.9 | 0.00 | 0.00 | 0.00 | 29 | 1008.0 |
| 20260505191303 | 81 | 37 | 7.0 | 13.9 | 0.00 | 0.00 | 0.00 | 30 | 1008.0 |
| 20260505191203 | 81 | 35 | 7.0 | 11.3 | 0.00 | 0.00 | 0.00 | 27 | 1008.0 |
| 20260505191124 | 81 | 33 | 7.0 | 11.3 | 0.00 | 0.00 | 0.00 | 27 | 1008.0 |
| 20260505191003 | 81 | 32 | 7.0 | 11.3 | 0.00 | 0.00 | 0.00 | 28 | 1008.0 |
| 20260505190903 | 81 | 32 | 7.0 | 11.3 | 0.00 | 0.00 | 0.00 | 29 | 1008.0 |
| 20260505190803 | 81 | 29 | 6.1 | 11.3 | 0.00 | 0.00 | 0.00 | 28 | 1008.0 |
| 20260505190703 | 80 | 29 | 6.1 | 12.2 | 0.00 | 0.00 | 0.00 | 27 | 1008.0 |
| 20260505190603 | 80 | 29 | 6.1 | 12.2 | 0.00 | 0.00 | 0.00 | 25 | 1008.1 |
| 20260505190503 | 80 | 28 | 6.1 | 12.2 | 0.00 | 0.00 | 0.00 | 25 | 1008.0 |
| 20260505190403 | 80 | 29 | 6.1 | 12.2 | 0.00 | 0.00 | 0.00 | 25 | 1008.0 |
| 20260505190324 | 80 | 30 | 6.1 | 12.2 | 0.00 | 0.00 | 0.00 | 26 | 1008.0 |
| 20260505190204 | 80 | 28 | 6.1 | 12.2 | 0.00 | 0.00 | 0.00 | 25 | 1008.0 |
| 20260505190103 | 80 | 30 | 6.1 | 12.2 | 0.00 | 0.00 | 0.00 | 25 | 1008.0 |
| 20260505190024 | 80 | 32 | 6.1 | 12.2 | 0.00 | 0.00 | 0.00 | 23 | 1008.0 |
| 20260505185903 | 80 | 33 | 6.1 | 12.2 | 0.00 | 0.00 | 0.00 | 23 | 1008.0 |
| 20260505185803 | 80 | 35 | 6.1 | 12.2 | 0.00 | 0.00 | 0.00 | 22 | 1008.0 |
| 20260505185703 | 80 | 34 | 6.1 | 12.2 | 0.00 | 0.00 | 0.00 | 21 | 1008.0 |
| 20260505185603 | 80 | 34 | 5.2 | 12.2 | 0.00 | 0.00 | 0.00 | 21 | 1008.1 |
| 20260505185503 | 80 | 34 | 5.2 | 9.6 | 0.00 | 0.00 | 0.00 | 19 | 1008.1 |
| 20260505185403 | 80 | 35 | 5.2 | 10.4 | 0.00 | 0.00 | 0.00 | 18 | 1008.1 |
| 20260505185324 | 80 | 34 | 6.1 | 10.4 | 0.00 | 0.00 | 0.00 | 18 | 1008.1 |
| 20260505185203 | 80 | 36 | 6.1 | 10.4 | 0.00 | 0.00 | 0.00 | 17 | 1008.1 |
| 20260505185124 | 80 | 35 | 6.1 | 10.4 | 0.00 | 0.00 | 0.00 | 17 | 1008.1 |
| 20260505185003 | 79 | 33 | 6.1 | 10.4 | 0.00 | 0.00 | 0.00 | 17 | 1008.1 |
| 20260505184903 | 79 | 32 | 6.1 | 10.4 | 0.00 | 0.00 | 0.00 | 18 | 1008.2 |
| 20260505184803 | 79 | 33 | 6.1 | 10.4 | 0.00 | 0.00 | 0.00 | 18 | 1008.2 |
| 20260505184703 | 79 | 36 | 6.1 | 10.4 | 0.00 | 0.00 | 0.00 | 18 | 1008.2 |
| 20260505184603 | 79 | 38 | 6.1 | 10.4 | 0.00 | 0.00 | 0.00 | 18 | 1008.2 |
| 20260505184503 | 79 | 40 | 6.1 | 10.4 | 0.00 | 0.00 | 0.00 | 18 | 1008.2 |
| 20260505184403 | 79 | 40 | 6.1 | 13.0 | 0.00 | 0.00 | 0.00 | 17 | 1008.3 |
| 20260505184303 | 79 | 43 | 6.1 | 13.0 | 0.00 | 0.00 | 0.00 | 16 | 1008.3 |
| 20260505184203 | 79 | 46 | 7.0 | 13.0 | 0.00 | 0.00 | 0.00 | 18 | 1008.2 |
| 20260505184124 | 79 | 46 | 6.1 | 13.0 | 0.00 | 0.00 | 0.00 | 18 | 1008.2 |
| 20260505184003 | 79 | 50 | 6.1 | 13.0 | 0.00 | 0.00 | 0.00 | 18 | 1008.3 |
| 20260505183903 | 79 | 52 | 6.1 | 13.0 | 0.00 | 0.00 | 0.00 | 17 | 1008.3 |
| 20260505183803 | 79 | 52 | 7.0 | 13.0 | 0.00 | 0.00 | 0.00 | 18 | 1008.3 |
| 20260505183703 | 79 | 51 | 7.0 | 13.9 | 0.00 | 0.00 | 0.00 | 18 | 1008.3 |
| 20260505183603 | 79 | 51 | 7.0 | 13.9 | 0.00 | 0.00 | 0.00 | 18 | 1008.3 |
| 20260505183503 | 79 | 51 | 7.0 | 13.9 | 0.00 | 0.00 | 0.00 | 19 | 1008.3 |
| 20260505183403 | 79 | 52 | 7.0 | 13.9 | 0.00 | 0.00 | 0.00 | 15 | 1008.4 |
| 20260505183303 | 79 | 52 | 7.0 | 13.9 | 0.00 | 0.00 | 0.00 | 17 | 1008.4 |
| 20260505183203 | 79 | 52 | 7.0 | 13.9 | 0.00 | 0.00 | 0.00 | 18 | 1008.4 |
| 20260505183103 | 79 | 53 | 7.8 | 13.9 | 0.00 | 0.00 | 0.00 | 18 | 1008.4 |
| 20260505183003 | 79 | 52 | 7.8 | 16.5 | 0.00 | 0.00 | 0.00 | 18 | 1008.4 |
| 20260505182903 | 79 | 53 | 7.8 | 16.5 | 0.00 | 0.00 | 0.00 | 18 | 1008.4 |
| 20260505182803 | 79 | 54 | 7.8 | 16.5 | 0.00 | 0.00 | 0.00 | 18 | 1008.4 |
| 20260505182703 | 79 | 53 | 7.8 | 16.5 | 0.00 | 0.00 | 0.00 | 16 | 1008.4 |
| 20260505182603 | 79 | 51 | 7.8 | 16.5 | 0.00 | 0.00 | 0.00 | 13 | 1008.4 |
| 20260505182503 | 79 | 49 | 7.8 | 16.5 | 0.00 | 0.00 | 0.00 | 13 | 1008.4 |
| 20260505182403 | 78 | 48 | 7.8 | 16.5 | 0.00 | 0.00 | 0.00 | 14 | 1008.4 |
| 20260505182306 | 78 | 48 | 7.8 | 16.5 | 0.00 | 0.00 | 0.00 | 14 | 1008.4 |
| 20260505182203 | 78 | 47 | 7.8 | 16.5 | 0.00 | 0.00 | 0.00 | 15 | 1008.4 |
| 20260505182103 | 78 | 43 | 7.8 | 16.5 | 0.00 | 0.00 | 0.00 | 14 | 1008.5 |
| 20260505182004 | 78 | 40 | 7.8 | 14.8 | 0.00 | 0.00 | 0.00 | 16 | 1008.5 |
| 20260505181903 | 79 | 38 | 7.8 | 14.8 | 0.00 | 0.00 | 0.00 | 15 | 1008.5 |
| 20260505181824 | 78 | 37 | 7.8 | 14.8 | 0.00 | 0.00 | 0.00 | 15 | 1008.5 |
| 20260505181703 | 78 | 37 | 7.0 | 13.9 | 0.00 | 0.00 | 0.00 | 13 | 1008.5 |
| 20260505181603 | 78 | 36 | 7.0 | 13.9 | 0.00 | 0.00 | 0.00 | 13 | 1008.5 |
| 20260505181503 | 78 | 38 | 7.0 | 13.9 | 0.00 | 0.00 | 0.00 | 10 | 1008.5 |
| 20260505181424 | 78 | 39 | 7.0 | 13.9 | 0.00 | 0.00 | 0.00 | 10 | 1008.5 |
| 20260505181303 | 78 | 39 | 7.8 | 13.9 | 0.00 | 0.00 | 0.00 | 11 | 1008.5 |
| 20260505181203 | 78 | 38 | 7.8 | 13.9 | 0.00 | 0.00 | 0.00 | 10 | 1008.6 |
| 20260505181124 | 78 | 38 | 7.8 | 13.9 | 0.00 | 0.00 | 0.00 | 11 | 1008.6 |
| 20260505181003 | 78 | 40 | 7.0 | 13.9 | 0.00 | 0.00 | 0.00 | 9 | 1008.6 |
| 20260505180903 | 78 | 40 | 7.0 | 13.9 | 0.00 | 0.00 | 0.00 | 8 | 1008.6 |
| 20260505180803 | 78 | 39 | 7.0 | 13.9 | 0.00 | 0.00 | 0.00 | 5 | 1008.5 |
| 20260505180703 | 78 | 39 | 7.0 | 13.9 | 0.00 | 0.00 | 0.00 | 5 | 1008.6 |
| 20260505180603 | 78 | 41 | 7.0 | 13.9 | 0.00 | 0.00 | 0.00 | 6 | 1008.6 |
| 20260505180503 | 78 | 41 | 7.0 | 13.9 | 0.00 | 0.00 | 0.00 | 6 | 1008.6 |
| 20260505180403 | 78 | 41 | 7.0 | 13.9 | 0.00 | 0.00 | 0.00 | 8 | 1008.6 |
| 20260505180303 | 78 | 40 | 7.0 | 13.9 | 0.00 | 0.00 | 0.00 | 6 | 1008.6 |
| 20260505180224 | 78 | 41 | 6.1 | 13.9 | 0.00 | 0.00 | 0.00 | 5 | 1008.6 |
| 20260505180103 | 78 | 41 | 6.1 | 13.9 | 0.00 | 0.00 | 0.00 | 5 | 1008.7 |
| 20260505180003 | 77 | 40 | 7.0 | 13.9 | 0.00 | 0.00 | 0.00 | 6 | 1008.7 |
| 20260505175903 | 78 | 38 | 7.0 | 13.9 | 0.00 | 0.00 | 0.00 | 7 | 1008.7 |
| 20260505175803 | 78 | 41 | 7.0 | 13.9 | 0.00 | 0.00 | 0.00 | 4 | 1008.7 |
| 20260505175703 | 77 | 42 | 7.0 | 13.9 | 0.00 | 0.00 | 0.00 | 3 | 1008.8 |
| 20260505175604 | 77 | 41 | 7.8 | 13.9 | 0.00 | 0.00 | 0.00 | 2 | 1008.7 |
| 20260505175524 | 77 | 41 | 7.8 | 13.9 | 0.00 | 0.00 | 0.00 | 2 | 1008.7 |
| 20260505175403 | 77 | 40 | 7.8 | 13.9 | 0.00 | 0.00 | 0.00 | 2 | 1008.8 |
| 20260505175305 | 77 | 39 | 7.8 | 13.9 | 0.00 | 0.00 | 0.00 | 2 | 1008.8 |
| 20260505175203 | 77 | 39 | 7.8 | 13.9 | 0.00 | 0.00 | 0.00 | 4 | 1008.7 |
| 20260505175103 | 77 | 39 | 7.8 | 13.9 | 0.00 | 0.00 | 0.00 | 4 | 1008.7 |
| 20260505175025 | 77 | 39 | 7.8 | 13.9 | 0.00 | 0.00 | 0.00 | 5 | 1008.8 |
| 20260505174903 | 77 | 38 | 7.8 | 13.9 | 0.00 | 0.00 | 0.00 | 5 | 1008.8 |
| 20260505174803 | 77 | 37 | 7.0 | 13.9 | 0.00 | 0.00 | 0.00 | 7 | 1008.8 |
| 20260505174724 | 77 | 36 | 7.0 | 13.9 | 0.00 | 0.00 | 0.00 | 6 | 1008.8 |
| 20260505174603 | 77 | 36 | 6.1 | 12.2 | 0.00 | 0.00 | 0.00 | 3 | 1008.8 |
| 20260505174524 | 77 | 35 | 7.0 | 12.2 | 0.00 | 0.00 | 0.00 | 3 | 1008.8 |
| 20260505174403 | 77 | 36 | 7.0 | 12.2 | 0.00 | 0.00 | 0.00 | 3 | 1008.8 |
| 20260505174303 | 77 | 36 | 7.0 | 13.9 | 0.00 | 0.00 | 0.00 | 4 | 1008.8 |
| 20260505174203 | 77 | 37 | 7.8 | 13.9 | 0.00 | 0.00 | 0.00 | 5 | 1008.8 |
| 20260505174103 | 77 | 37 | 7.0 | 13.9 | 0.00 | 0.00 | 0.00 | 3 | 1008.9 |
| 20260505174003 | 77 | 40 | 7.0 | 13.9 | 0.00 | 0.00 | 0.00 | 3 | 1008.9 |
| 20260505173903 | 77 | 39 | 7.0 | 13.9 | 0.00 | 0.00 | 0.00 | 2 | 1008.9 |
| 20260505173803 | 77 | 41 | 7.0 | 13.9 | 0.00 | 0.00 | 0.00 | 1 | 1008.9 |
| 20260505173703 | 77 | 42 | 7.8 | 13.9 | 0.00 | 0.00 | 0.00 | 2 | 1008.9 |
| 20260505173603 | 77 | 44 | 7.8 | 13.9 | 0.00 | 0.00 | 0.00 | 3 | 1009.0 |
| 20260505173503 | 77 | 46 | 7.8 | 13.9 | 0.00 | 0.00 | 0.00 | 4 | 1008.9 |
| 20260505173424 | 77 | 46 | 7.8 | 13.9 | 0.00 | 0.00 | 0.00 | 4 | 1008.9 |
| 20260505173324 | 77 | 47 | 7.8 | 13.0 | 0.00 | 0.00 | 0.00 | 2 | 1008.9 |
| 20260505173203 | 77 | 49 | 7.0 | 13.0 | 0.00 | 0.00 | 0.00 | 1 | 1008.9 |
| 20260505173103 | 77 | 51 | 7.0 | 13.0 | 0.00 | 0.00 | 0.00 | 1 | 1009.0 |
| 20260505173003 | 77 | 51 | 7.8 | 13.0 | 0.00 | 0.00 | 0.00 | 2 | 1009.0 |
| 20260505172903 | 77 | 51 | 7.8 | 13.0 | 0.00 | 0.00 | 0.00 | 3 | 1009.0 |
| 20260505172803 | 77 | 48 | 7.0 | 13.0 | 0.00 | 0.00 | 0.00 | 3 | 1009.0 |
| 20260505172703 | 77 | 47 | 7.0 | 12.2 | 0.00 | 0.00 | 0.00 | 4 | 1009.0 |
| 20260505172603 | 77 | 45 | 7.0 | 12.2 | 0.00 | 0.00 | 0.00 | 2 | 1009.0 |
| 20260505172524 | 77 | 45 | 7.0 | 12.2 | 0.00 | 0.00 | 0.00 | 2 | 1009.0 |
| 20260505172424 | 77 | 46 | 7.0 | 12.2 | 0.00 | 0.00 | 0.00 | 1 | 1009.0 |
| 20260505172305 | 77 | 43 | 7.0 | 13.0 | 0.00 | 0.00 | 0.00 | 1 | 1009.0 |
| 20260505172224 | 77 | 43 | 7.0 | 13.0 | 0.00 | 0.00 | 0.00 | 1 | 1008.9 |
| 20260505172103 | 77 | 41 | 7.0 | 13.0 | 0.00 | 0.00 | 0.00 | 1 | 1008.9 |
| 20260505172003 | 77 | 39 | 7.0 | 13.0 | 0.00 | 0.00 | 0.00 | 1 | 1008.9 |
| 20260505171903 | 77 | 39 | 7.0 | 13.0 | 0.00 | 0.00 | 0.00 | 1 | 1009.0 |
| 20260505171803 | 77 | 42 | 7.0 | 13.0 | 0.00 | 0.00 | 0.00 | 1 | 1008.9 |
| 20260505171703 | 77 | 44 | 6.1 | 13.0 | 0.00 | 0.00 | 0.00 | 1 | 1008.9 |
| 20260505171603 | 77 | 45 | 7.0 | 13.0 | 0.00 | 0.00 | 0.00 | 1 | 1009.0 |
| 20260505171503 | 77 | 43 | 7.0 | 13.0 | 0.00 | 0.00 | 0.00 | 1 | 1009.0 |
| 20260505171403 | 77 | 42 | 7.0 | 13.0 | 0.00 | 0.00 | 0.00 | 1 | 1009.0 |
| 20260505171304 | 77 | 45 | 7.0 | 12.2 | 0.00 | 0.00 | 0.00 | 1 | 1009.0 |
| 20260505171203 | 77 | 44 | 7.0 | 12.2 | 0.00 | 0.00 | 0.00 | 1 | 1009.1 |
| 20260505171103 | 77 | 44 | 7.0 | 12.2 | 0.00 | 0.00 | 0.00 | 1 | 1009.1 |
| 20260505171003 | 76 | 45 | 7.0 | 12.2 | 0.00 | 0.00 | 0.00 | 1 | 1009.1 |
| 20260505170903 | 76 | 47 | 7.0 | 12.2 | 0.00 | 0.00 | 0.00 | 1 | 1009.1 |
| 20260505170803 | 76 | 45 | 7.0 | 12.2 | 0.00 | 0.00 | 0.00 | 1 | 1009.1 |
| 20260505170703 | 76 | 45 | 7.0 | 12.2 | 0.00 | 0.00 | 0.00 | 1 | 1009.1 |
| 20260505170603 | 76 | 42 | 7.0 | 13.9 | 0.00 | 0.00 | 0.00 | 1 | 1009.1 |
| 20260505170503 | 76 | 41 | 7.0 | 13.9 | 0.00 | 0.00 | 0.00 | 1 | 1009.1 |
| 20260505170403 | 76 | 42 | 7.8 | 13.9 | 0.00 | 0.00 | 0.00 | 1 | 1009.1 |
| 20260505170303 | 76 | 41 | 7.0 | 13.9 | 0.00 | 0.00 | 0.00 | 1 | 1009.1 |
| 20260505170203 | 76 | 41 | 7.0 | 13.9 | 0.00 | 0.00 | 0.00 | 1 | 1009.1 |
| 20260505170103 | 76 | 42 | 7.0 | 13.9 | 0.00 | 0.00 | 0.00 | 1 | 1009.1 |
| 20260505170004 | 76 | 41 | 7.0 | 13.9 | 0.00 | 0.00 | 0.00 | 1 | 1009.1 |
| 20260505165903 | 76 | 41 | 7.0 | 13.9 | 0.00 | 0.00 | 0.00 | 1 | 1009.1 |
| 20260505165824 | 76 | 41 | 7.0 | 13.9 | 0.00 | 0.00 | 0.00 | 1 | 1009.1 |
| 20260505165703 | 76 | 39 | 7.0 | 13.9 | 0.00 | 0.00 | 0.00 | 1 | 1009.1 |
| 20260505165603 | 76 | 37 | 7.0 | 12.2 | 0.00 | 0.00 | 0.00 | 1 | 1009.1 |
| 20260505165503 | 76 | 39 | 7.0 | 12.2 | 0.00 | 0.00 | 0.00 | 1 | 1009.1 |
| 20260505165403 | 76 | 40 | 7.0 | 12.2 | 0.00 | 0.00 | 0.00 | 1 | 1009.1 |
| 20260505165306 | 76 | 39 | 7.0 | 12.2 | 0.00 | 0.00 | 0.00 | 1 | 1009.0 |
| 20260505165203 | 76 | 40 | 7.0 | 12.2 | 0.00 | 0.00 | 0.00 | 1 | 1009.0 |
| 20260505165124 | 76 | 39 | 7.0 | 12.2 | 0.00 | 0.00 | 0.00 | 1 | 1009.0 |
| 20260505165003 | 75 | 37 | 7.0 | 13.0 | 0.00 | 0.00 | 0.00 | 1 | 1009.1 |
| 20260505164924 | 75 | 36 | 7.0 | 14.8 | 0.00 | 0.00 | 0.00 | 1 | 1009.0 |
| 20260505164824 | 75 | 37 | 7.0 | 14.8 | 0.00 | 0.00 | 0.00 | 1 | 1009.0 |
| 20260505164703 | 75 | 36 | 7.0 | 14.8 | 0.00 | 0.00 | 0.00 | 1 | 1009.0 |
| 20260505164624 | 75 | 37 | 7.8 | 14.8 | 0.00 | 0.00 | 0.00 | 1 | 1009.0 |
| 20260505164503 | 75 | 38 | 7.8 | 14.8 | 0.00 | 0.00 | 0.00 | 1 | 1009.1 |
| 20260505164403 | 75 | 38 | 7.8 | 14.8 | 0.00 | 0.00 | 0.00 | 1 | 1009.1 |
| 20260505164303 | 75 | 38 | 7.8 | 14.8 | 0.00 | 0.00 | 0.00 | 1 | 1009.1 |
| 20260505164203 | 75 | 37 | 8.7 | 14.8 | 0.00 | 0.00 | 0.00 | 1 | 1009.1 |
| 20260505164103 | 75 | 37 | 7.8 | 14.8 | 0.00 | 0.00 | 0.00 | 1 | 1009.1 |
| 20260505164003 | 75 | 40 | 7.8 | 14.8 | 0.00 | 0.00 | 0.00 | 1 | 1009.1 |
| 20260505163925 | 75 | 42 | 7.8 | 13.9 | 0.00 | 0.00 | 0.00 | 1 | 1009.0 |
| 20260505163803 | 75 | 42 | 7.8 | 13.9 | 0.00 | 0.00 | 0.00 | 1 | 1009.0 |
| 20260505163703 | 75 | 44 | 7.8 | 13.9 | 0.00 | 0.00 | 0.00 | 1 | 1009.0 |
| 20260505163603 | 75 | 45 | 7.8 | 13.9 | 0.00 | 0.00 | 0.00 | 1 | 1009.0 |
| 20260505163524 | 75 | 44 | 7.8 | 13.0 | 0.00 | 0.00 | 0.00 | 1 | 1009.0 |
| 20260505163403 | 75 | 44 | 7.8 | 13.0 | 0.00 | 0.00 | 0.00 | 1 | 1009.0 |
| 20260505163303 | 75 | 43 | 7.0 | 13.0 | 0.00 | 0.00 | 0.00 | 1 | 1009.0 |
| 20260505163203 | 75 | 44 | 7.0 | 13.0 | 0.00 | 0.00 | 0.00 | 1 | 1008.9 |
| 20260505163103 | 75 | 45 | 7.0 | 13.0 | 0.00 | 0.00 | 0.00 | 1 | 1008.9 |
| 20260505163024 | 75 | 44 | 6.1 | 13.0 | 0.00 | 0.00 | 0.00 | 1 | 1008.9 |
| 20260505162903 | 74 | 44 | 7.0 | 13.0 | 0.00 | 0.00 | 0.00 | 1 | 1009.0 |
| 20260505162824 | 74 | 44 | 7.0 | 13.0 | 0.00 | 0.00 | 0.00 | 1 | 1009.0 |
| 20260505162703 | 74 | 42 | 7.0 | 14.8 | 0.00 | 0.00 | 0.00 | 1 | 1009.0 |
| 20260505162604 | 74 | 40 | 7.0 | 14.8 | 0.00 | 0.00 | 0.00 | 1 | 1008.9 |
| 20260505162503 | 74 | 41 | 7.0 | 14.8 | 0.00 | 0.00 | 0.00 | 1 | 1009.0 |
| 20260505162403 | 74 | 41 | 7.0 | 14.8 | 0.00 | 0.00 | 0.00 | 1 | 1009.0 |
| 20260505162306 | 74 | 43 | 7.8 | 14.8 | 0.00 | 0.00 | 0.00 | 1 | 1009.0 |
| 20260505162203 | 74 | 43 | 7.8 | 14.8 | 0.00 | 0.00 | 0.00 | 1 | 1009.0 |
| 20260505162124 | 74 | 42 | 7.8 | 14.8 | 0.00 | 0.00 | 0.00 | 1 | 1009.0 |
| 20260505162024 | 74 | 41 | 7.8 | 14.8 | 0.00 | 0.00 | 0.00 | 1 | 1009.0 |
| 20260505161924 | 74 | 41 | 7.8 | 14.8 | 0.00 | 0.00 | 0.00 | 1 | 1009.0 |
| 20260505161803 | 74 | 40 | 7.8 | 14.8 | 0.00 | 0.00 | 0.00 | 1 | 1009.0 |
| 20260505161724 | 74 | 41 | 7.8 | 12.2 | 0.00 | 0.00 | 0.00 | 1 | 1009.0 |
| 20260505161603 | 74 | 41 | 7.0 | 12.2 | 0.00 | 0.00 | 0.00 | 1 | 1009.0 |
| 20260505161503 | 74 | 41 | 7.0 | 12.2 | 0.00 | 0.00 | 0.00 | 1 | 1009.1 |
| 20260505161403 | 74 | 42 | 7.0 | 12.2 | 0.00 | 0.00 | 0.00 | 1 | 1009.0 |
| 20260505161303 | 74 | 42 | 7.0 | 15.6 | 0.00 | 0.00 | 0.00 | 1 | 1009.1 |
| 20260505161203 | 74 | 43 | 7.0 | 15.6 | 0.00 | 0.00 | 0.00 | 1 | 1009.1 |
| 20260505161103 | 74 | 44 | 7.0 | 15.6 | 0.00 | 0.00 | 0.00 | 1 | 1009.1 |
| 20260505161003 | 74 | 46 | 7.0 | 15.6 | 0.00 | 0.00 | 0.00 | 1 | 1009.1 |
| 20260505160903 | 74 | 45 | 7.0 | 15.6 | 0.00 | 0.00 | 0.00 | 1 | 1009.1 |
| 20260505160803 | 74 | 45 | 7.0 | 15.6 | 0.00 | 0.00 | 0.00 | 1 | 1009.1 |
| 20260505160703 | 74 | 45 | 7.0 | 15.6 | 0.00 | 0.00 | 0.00 | 1 | 1009.1 |
| 20260505160603 | 74 | 47 | 7.0 | 15.6 | 0.00 | 0.00 | 0.00 | 1 | 1009.1 |
| 20260505160503 | 74 | 48 | 7.0 | 15.6 | 0.00 | 0.00 | 0.00 | 1 | 1009.1 |
| 20260505160403 | 74 | 47 | 7.0 | 15.6 | 0.00 | 0.00 | 0.00 | 1 | 1009.1 |
| 20260505160303 | 74 | 48 | 7.0 | 13.0 | 0.00 | 0.00 | 0.00 | 1 | 1009.1 |
| 20260505160203 | 74 | 47 | 7.0 | 12.2 | 0.00 | 0.00 | 0.00 | 1 | 1009.1 |
| 20260505160124 | 74 | 46 | 7.0 | 12.2 | 0.00 | 0.00 | 0.00 | 1 | 1009.1 |
| 20260505153303 | 74 | 50 | 7.0 | 13.0 | 0.00 | 0.00 | 0.00 | 1 | 1009.2 |
| 20260505153224 | 74 | 50 | 7.0 | 13.0 | 0.00 | 0.00 | 0.00 | 1 | 1009.3 |
| 20260505153103 | 74 | 51 | 7.0 | 13.0 | 0.00 | 0.00 | 0.00 | 1 | 1009.2 |
| 20260505153003 | 74 | 53 | 7.0 | 13.0 | 0.00 | 0.00 | 0.00 | 1 | 1009.2 |
| 20260505152903 | 73 | 53 | 7.0 | 13.0 | 0.00 | 0.00 | 0.00 | 1 | 1009.2 |
| 20260505152803 | 73 | 53 | 7.0 | 13.0 | 0.00 | 0.00 | 0.00 | 1 | 1009.1 |
| 20260505152703 | 73 | 53 | 7.0 | 13.0 | 0.00 | 0.00 | 0.00 | 1 | 1009.1 |
| 20260505152604 | 73 | 53 | 7.0 | 13.0 | 0.00 | 0.00 | 0.00 | 1 | 1009.1 |
| 20260505152504 | 73 | 50 | 7.0 | 15.6 | 0.00 | 0.00 | 0.00 | 1 | 1009.1 |
| 20260505152403 | 73 | 50 | 7.8 | 15.6 | 0.00 | 0.00 | 0.00 | 1 | 1009.1 |
| 20260505152305 | 73 | 50 | 7.8 | 15.6 | 0.00 | 0.00 | 0.00 | 1 | 1009.0 |
| 20260505152203 | 73 | 48 | 7.8 | 17.4 | 0.00 | 0.00 | 0.00 | 1 | 1009.0 |
| 20260505152124 | 73 | 48 | 7.8 | 17.4 | 0.00 | 0.00 | 0.00 | 1 | 1009.0 |
| 20260505152003 | 73 | 47 | 7.8 | 17.4 | 0.00 | 0.00 | 0.00 | 1 | 1008.9 |
| 20260505151903 | 73 | 48 | 8.7 | 17.4 | 0.00 | 0.00 | 0.00 | 1 | 1009.0 |
| 20260505151803 | 73 | 47 | 8.7 | 17.4 | 0.00 | 0.00 | 0.00 | 1 | 1008.9 |
| 20260505151724 | 73 | 47 | 8.7 | 17.4 | 0.00 | 0.00 | 0.00 | 1 | 1008.9 |
| 20260505151603 | 73 | 49 | 7.8 | 17.4 | 0.00 | 0.00 | 0.00 | 1 | 1009.0 |
| 20260505151503 | 73 | 50 | 7.8 | 17.4 | 0.00 | 0.00 | 0.00 | 1 | 1008.9 |
| 20260505151403 | 73 | 48 | 7.8 | 17.4 | 0.00 | 0.00 | 0.00 | 1 | 1008.8 |
| 20260505151303 | 73 | 47 | 7.8 | 17.4 | 0.00 | 0.00 | 0.00 | 1 | 1008.9 |
| 20260505151203 | 73 | 50 | 7.8 | 14.8 | 0.00 | 0.00 | 0.00 | 1 | 1008.9 |
| 20260505151103 | 73 | 50 | 7.8 | 14.8 | 0.00 | 0.00 | 0.00 | 1 | 1008.9 |
| 20260505151003 | 73 | 50 | 7.8 | 14.8 | 0.00 | 0.00 | 0.00 | 1 | 1008.8 |
| 20260505150924 | 73 | 50 | 7.8 | 14.8 | 0.00 | 0.00 | 0.00 | 1 | 1008.8 |
| 20260505150803 | 73 | 49 | 7.8 | 14.8 | 0.00 | 0.00 | 0.00 | 1 | 1008.8 |
| 20260505150703 | 73 | 49 | 7.8 | 14.8 | 0.00 | 0.00 | 0.00 | 1 | 1008.8 |
| 20260505150603 | 73 | 47 | 7.8 | 14.8 | 0.00 | 0.00 | 0.00 | 1 | 1008.8 |
| 20260505150503 | 73 | 46 | 7.8 | 14.8 | 0.00 | 0.00 | 0.00 | 1 | 1008.8 |
| 20260505150403 | 73 | 47 | 7.8 | 14.8 | 0.00 | 0.00 | 0.00 | 1 | 1008.8 |
| 20260505150303 | 73 | 47 | 7.8 | 14.8 | 0.00 | 0.00 | 0.00 | 1 | 1008.8 |
| 20260505150224 | 73 | 46 | 7.8 | 13.0 | 0.00 | 0.00 | 0.00 | 1 | 1008.8 |
| 20260505140603 | 72 | 47 | 5.2 | 12.2 | 0.00 | 0.00 | 0.00 | 1 | 1008.6 |
| 20260505140503 | 72 | 47 | 5.2 | 12.2 | 0.00 | 0.00 | 0.00 | 1 | 1008.6 |
| 20260505140424 | 72 | 47 | 5.2 | 12.2 | 0.00 | 0.00 | 0.00 | 1 | 1008.6 |
| 20260505140303 | 72 | 45 | 5.2 | 12.2 | 0.00 | 0.00 | 0.00 | 1 | 1008.5 |
| 20260505140224 | 72 | 45 | 5.2 | 12.2 | 0.00 | 0.00 | 0.00 | 1 | 1008.5 |
| 20260505130303 | 71 | 43 | 7.0 | 12.2 | 0.00 | 0.00 | 0.00 | 1 | 1008.2 |
| 20260505130203 | 71 | 43 | 7.0 | 12.2 | 0.00 | 0.00 | 0.00 | 1 | 1008.1 |
| 20260505130103 | 71 | 43 | 7.0 | 12.2 | 0.00 | 0.00 | 0.00 | 1 | 1008.1 |
| 20260505125003 | 72 | 43 | 7.8 | 16.5 | 0.00 | 0.00 | 0.00 | 1 | 1007.9 |
| 20260505124903 | 72 | 43 | 7.8 | 16.5 | 0.00 | 0.00 | 0.00 | 1 | 1007.9 |
| 20260505124803 | 72 | 44 | 7.8 | 16.5 | 0.00 | 0.00 | 0.00 | 1 | 1007.9 |
| 20260505124703 | 72 | 44 | 7.8 | 14.8 | 0.00 | 0.00 | 0.00 | 1 | 1007.9 |
| 20260505124604 | 72 | 43 | 7.8 | 14.8 | 0.00 | 0.00 | 0.00 | 1 | 1007.9 |
| 20260505124524 | 72 | 42 | 7.8 | 14.8 | 0.00 | 0.00 | 0.00 | 1 | 1007.9 |
| 20260505124403 | 72 | 42 | 7.8 | 17.4 | 0.00 | 0.00 | 0.00 | 1 | 1007.8 |
| 20260505124324 | 72 | 41 | 7.8 | 17.4 | 0.00 | 0.00 | 0.00 | 1 | 1007.7 |
| 20260505124224 | 72 | 41 | 7.0 | 17.4 | 0.00 | 0.00 | 0.00 | 1 | 1007.8 |
| 20260505124103 | 72 | 41 | 7.8 | 17.4 | 0.00 | 0.00 | 0.00 | 1 | 1007.8 |
| 20260505124003 | 72 | 41 | 7.8 | 17.4 | 0.00 | 0.00 | 0.00 | 1 | 1007.8 |
| 20260505123903 | 72 | 40 | 7.8 | 17.4 | 0.00 | 0.00 | 0.00 | 1 | 1007.8 |
| 20260505123803 | 72 | 40 | 7.8 | 17.4 | 0.00 | 0.00 | 0.00 | 1 | 1007.7 |
| 20260505123703 | 72 | 41 | 7.8 | 17.4 | 0.00 | 0.00 | 0.00 | 1 | 1007.7 |
| 20260505123603 | 72 | 41 | 7.8 | 17.4 | 0.00 | 0.00 | 0.00 | 1 | 1007.7 |
| 20260505123524 | 71 | 42 | 7.8 | 17.4 | 0.00 | 0.00 | 0.00 | 1 | 1007.7 |
| 20260505123424 | 71 | 42 | 7.8 | 13.9 | 0.00 | 0.00 | 0.00 | 1 | 1007.7 |
| 20260505123324 | 71 | 42 | 7.0 | 13.9 | 0.00 | 0.00 | 0.00 | 1 | 1007.6 |
| 20260505123203 | 71 | 42 | 7.8 | 13.9 | 0.00 | 0.00 | 0.00 | 1 | 1007.6 |
| 20260505123103 | 71 | 42 | 7.8 | 13.9 | 0.00 | 0.00 | 0.00 | 1 | 1007.6 |
| 20260505123003 | 71 | 42 | 7.8 | 13.9 | 0.00 | 0.00 | 0.00 | 1 | 1007.6 |
| 20260505122903 | 71 | 42 | 7.0 | 13.9 | 0.00 | 0.00 | 0.00 | 1 | 1007.6 |
| 20260505122803 | 71 | 41 | 7.8 | 13.9 | 0.00 | 0.00 | 0.00 | 1 | 1007.6 |
| 20260505122724 | 71 | 39 | 7.0 | 13.9 | 0.00 | 0.00 | 0.00 | 1 | 1007.6 |
| 20260505122624 | 71 | 40 | 7.0 | 13.9 | 0.00 | 0.00 | 0.00 | 1 | 1007.7 |
| 20260505122503 | 71 | 37 | 7.0 | 14.8 | 0.00 | 0.00 | 0.00 | 1 | 1007.6 |
| 20260505122403 | 71 | 38 | 7.0 | 14.8 | 0.00 | 0.00 | 0.00 | 1 | 1007.5 |
| 20260505122324 | 71 | 38 | 7.8 | 14.8 | 0.00 | 0.00 | 0.00 | 1 | 1007.6 |
| 20260505122203 | 71 | 40 | 7.8 | 16.5 | 0.00 | 0.00 | 0.00 | 1 | 1007.5 |
| 20260505122103 | 71 | 40 | 7.8 | 16.5 | 0.00 | 0.00 | 0.00 | 1 | 1007.6 |
| 20260505122003 | 71 | 39 | 7.8 | 16.5 | 0.00 | 0.00 | 0.00 | 1 | 1007.5 |
| 20260505121904 | 71 | 38 | 7.8 | 16.5 | 0.00 | 0.00 | 0.00 | 1 | 1007.5 |
| 20260505121824 | 71 | 38 | 7.0 | 16.5 | 0.00 | 0.00 | 0.00 | 1 | 1007.5 |
| 20260505121703 | 71 | 37 | 7.8 | 16.5 | 0.00 | 0.00 | 0.00 | 1 | 1007.5 |
| 20260505121603 | 71 | 35 | 7.8 | 16.5 | 0.00 | 0.00 | 0.00 | 1 | 1007.4 |
| 20260505121503 | 71 | 36 | 7.8 | 16.5 | 0.00 | 0.00 | 0.00 | 1 | 1007.4 |
| 20260505121403 | 71 | 36 | 8.7 | 16.5 | 0.00 | 0.00 | 0.00 | 1 | 1007.4 |
| 20260505121303 | 71 | 36 | 7.8 | 16.5 | 0.00 | 0.00 | 0.00 | 1 | 1007.4 |
| 20260505121203 | 71 | 35 | 7.8 | 13.9 | 0.00 | 0.00 | 0.00 | 1 | 1007.4 |
| 20260505121103 | 71 | 36 | 7.8 | 15.6 | 0.00 | 0.00 | 0.00 | 1 | 1007.4 |
| 20260505121024 | 72 | 35 | 7.8 | 15.6 | 0.00 | 0.00 | 0.00 | 1 | 1007.4 |
| 20260505120903 | 72 | 37 | 8.7 | 15.6 | 0.00 | 0.00 | 0.00 | 1 | 1007.3 |
| 20260505120824 | 72 | 37 | 8.7 | 15.6 | 0.00 | 0.00 | 0.00 | 1 | 1007.4 |
| 20260505120703 | 72 | 38 | 8.7 | 15.6 | 0.00 | 0.00 | 0.00 | 1 | 1007.3 |
| 20260505120603 | 72 | 40 | 8.7 | 15.6 | 0.00 | 0.00 | 0.00 | 1 | 1007.3 |
| 20260505120503 | 72 | 41 | 8.7 | 15.6 | 0.00 | 0.00 | 0.00 | 1 | 1007.3 |
| 20260505120403 | 72 | 40 | 8.7 | 15.6 | 0.00 | 0.00 | 0.00 | 1 | 1007.2 |
| 20260505120303 | 72 | 40 | 8.7 | 15.6 | 0.00 | 0.00 | 0.00 | 1 | 1007.3 |
| 20260505120224 | 72 | 40 | 8.7 | 15.6 | 0.00 | 0.00 | 0.00 | 1 | 1007.3 |
| 20260505120124 | 72 | 39 | 7.8 | 15.6 | 0.00 | 0.00 | 0.00 | 1 | 1007.3 |
| 20260505120004 | 72 | 41 | 7.8 | 14.8 | 0.00 | 0.00 | 0.00 | 1 | 1007.4 |
| 20260505115903 | 72 | 41 | 7.8 | 14.8 | 0.00 | 0.00 | 0.00 | 1 | 1007.4 |
| 20260505115803 | 72 | 40 | 7.8 | 16.5 | 0.00 | 0.00 | 0.00 | 1 | 1007.4 |
| 20260505115703 | 72 | 40 | 7.8 | 16.5 | 0.00 | 0.00 | 0.00 | 1 | 1007.3 |
| 20260505115603 | 72 | 39 | 7.8 | 16.5 | 0.00 | 0.00 | 0.00 | 1 | 1007.3 |
| 20260505115503 | 72 | 36 | 7.8 | 16.5 | 0.00 | 0.00 | 0.00 | 1 | 1007.2 |
| 20260505115403 | 72 | 37 | 7.8 | 16.5 | 0.00 | 0.00 | 0.00 | 1 | 1007.3 |
| 20260505115305 | 72 | 36 | 7.8 | 16.5 | 0.00 | 0.00 | 0.00 | 1 | 1007.3 |
| 20260505115224 | 72 | 36 | 7.8 | 16.5 | 0.00 | 0.00 | 0.00 | 1 | 1007.3 |
| 20260505115124 | 72 | 36 | 7.8 | 16.5 | 0.00 | 0.00 | 0.00 | 1 | 1007.3 |
| 20260505115003 | 72 | 36 | 7.8 | 16.5 | 0.00 | 0.00 | 0.00 | 1 | 1007.3 |
| 20260505114903 | 72 | 36 | 7.8 | 16.5 | 0.00 | 0.00 | 0.00 | 1 | 1007.3 |
| 20260505114803 | 72 | 38 | 7.8 | 15.6 | 0.00 | 0.00 | 0.00 | 1 | 1007.3 |
| 20260505114703 | 72 | 40 | 7.8 | 15.6 | 0.00 | 0.00 | 0.00 | 1 | 1007.2 |
| 20260505114625 | 72 | 40 | 8.7 | 16.5 | 0.00 | 0.00 | 0.00 | 1 | 1007.2 |
| 20260505114503 | 72 | 43 | 8.7 | 16.5 | 0.00 | 0.00 | 0.00 | 1 | 1007.3 |
| 20260505114403 | 72 | 44 | 8.7 | 16.5 | 0.00 | 0.00 | 0.00 | 1 | 1007.2 |
| 20260505114303 | 72 | 43 | 8.7 | 16.5 | 0.00 | 0.00 | 0.00 | 1 | 1007.2 |
| 20260505114203 | 72 | 42 | 8.7 | 18.2 | 0.00 | 0.00 | 0.00 | 1 | 1007.2 |
| 20260505114124 | 72 | 42 | 9.6 | 18.2 | 0.00 | 0.00 | 0.00 | 1 | 1007.2 |
| 20260505114003 | 72 | 42 | 9.6 | 18.2 | 0.00 | 0.00 | 0.00 | 1 | 1007.2 |
| 20260505113903 | 72 | 43 | 9.6 | 18.2 | 0.00 | 0.00 | 0.00 | 1 | 1007.3 |
| 20260505113803 | 72 | 42 | 9.6 | 18.2 | 0.00 | 0.00 | 0.00 | 1 | 1007.2 |
| 20260505113724 | 72 | 41 | 9.6 | 18.2 | 0.00 | 0.00 | 0.00 | 1 | 1007.3 |
| 20260505113603 | 72 | 39 | 9.6 | 18.2 | 0.00 | 0.00 | 0.00 | 1 | 1007.3 |
| 20260505113503 | 72 | 38 | 10.4 | 18.2 | 0.00 | 0.00 | 0.00 | 1 | 1007.3 |
| 20260505113403 | 72 | 37 | 10.4 | 18.2 | 0.00 | 0.00 | 0.00 | 1 | 1007.4 |
| 20260505113303 | 72 | 38 | 9.6 | 18.2 | 0.00 | 0.00 | 0.00 | 1 | 1007.3 |
| 20260505113203 | 72 | 37 | 9.6 | 18.2 | 0.00 | 0.00 | 0.00 | 1 | 1007.3 |
| 20260505113103 | 72 | 38 | 9.6 | 18.2 | 0.00 | 0.00 | 0.00 | 1 | 1007.3 |
| 20260505113003 | 72 | 38 | 9.6 | 18.2 | 0.00 | 0.00 | 0.00 | 1 | 1007.2 |
| 20260505112903 | 72 | 38 | 8.7 | 18.2 | 0.00 | 0.00 | 0.00 | 1 | 1007.3 |
| 20260505112803 | 72 | 38 | 8.7 | 18.2 | 0.00 | 0.00 | 0.00 | 1 | 1007.2 |
| 20260505112703 | 72 | 39 | 8.7 | 18.2 | 0.00 | 0.00 | 0.00 | 1 | 1007.2 |
| 20260505112603 | 72 | 40 | 7.8 | 18.2 | 0.00 | 0.00 | 0.00 | 1 | 1007.2 |
| 20260505112524 | 72 | 41 | 7.8 | 18.2 | 0.00 | 0.00 | 0.00 | 1 | 1007.2 |
| 20260505112403 | 72 | 44 | 7.0 | 13.9 | 0.00 | 0.00 | 0.00 | 1 | 1007.2 |
| 20260505112305 | 72 | 45 | 7.0 | 13.9 | 0.00 | 0.00 | 0.00 | 1 | 1007.1 |
| 20260505112203 | 72 | 46 | 7.0 | 13.9 | 0.00 | 0.00 | 0.00 | 1 | 1007.1 |
| 20260505112103 | 72 | 45 | 7.0 | 13.9 | 0.00 | 0.00 | 0.00 | 1 | 1007.2 |
| 20260505112003 | 72 | 45 | 7.0 | 13.9 | 0.00 | 0.00 | 0.00 | 1 | 1007.2 |
| 20260505111903 | 72 | 45 | 7.0 | 13.9 | 0.00 | 0.00 | 0.00 | 1 | 1007.2 |
| 20260505111803 | 72 | 46 | 7.0 | 13.9 | 0.00 | 0.00 | 0.00 | 1 | 1007.2 |
| 20260505111703 | 72 | 46 | 7.0 | 12.2 | 0.00 | 0.00 | 0.00 | 1 | 1007.3 |
| 20260505111605 | 72 | 44 | 7.0 | 12.2 | 0.00 | 0.00 | 0.00 | 1 | 1007.3 |
| 20260505111505 | 72 | 43 | 7.8 | 12.2 | 0.00 | 0.00 | 0.00 | 1 | 1007.3 |
| 20260505111405 | 72 | 41 | 7.8 | 15.6 | 0.00 | 0.00 | 0.00 | 1 | 1007.4 |
| 20260505111305 | 72 | 41 | 7.8 | 15.6 | 0.00 | 0.00 | 0.00 | 1 | 1007.5 |
| 20260505111205 | 72 | 43 | 7.8 | 15.6 | 0.00 | 0.00 | 0.00 | 1 | 1007.4 |
| 20260505111105 | 72 | 43 | 7.8 | 15.6 | 0.00 | 0.00 | 0.00 | 1 | 1007.5 |
| 20260505111005 | 72 | 42 | 7.8 | 15.6 | 0.00 | 0.00 | 0.00 | 1 | 1007.5 |
| 20260505110905 | 72 | 42 | 8.7 | 15.6 | 0.00 | 0.00 | 0.00 | 1 | 1007.5 |
| 20260505110805 | 71 | 41 | 8.7 | 15.6 | 0.00 | 0.00 | 0.00 | 1 | 1007.5 |
| 20260505110705 | 71 | 41 | 8.7 | 15.6 | 0.00 | 0.00 | 0.00 | 1 | 1007.5 |
| 20260505110605 | 71 | 41 | 7.8 | 15.6 | 0.00 | 0.00 | 0.00 | 1 | 1007.5 |
| 20260505110505 | 71 | 42 | 7.8 | 15.6 | 0.00 | 0.00 | 0.00 | 1 | 1007.6 |
| 20260505110405 | 71 | 44 | 7.0 | 13.9 | 0.00 | 0.00 | 0.00 | 1 | 1007.6 |
| 20260505110305 | 71 | 44 | 7.0 | 13.9 | 0.00 | 0.00 | 0.00 | 1 | 1007.6 |
| 20260505110205 | 71 | 43 | 7.0 | 13.9 | 0.00 | 0.00 | 0.00 | 1 | 1007.6 |
| 20260505110126 | 71 | 43 | 7.0 | 13.9 | 0.00 | 0.00 | 0.00 | 1 | 1007.5 |
| 20260505102205 | 71 | 44 | 6.1 | 15.6 | 0.00 | 0.00 | 0.00 | 1 | 1007.6 |
| 20260505102105 | 71 | 45 | 6.1 | 15.6 | 0.00 | 0.00 | 0.00 | 1 | 1007.7 |
| 20260505102005 | 71 | 43 | 6.1 | 15.6 | 0.00 | 0.00 | 0.00 | 1 | 1007.7 |
| 20260505101905 | 71 | 42 | 6.1 | 15.6 | 0.00 | 0.00 | 0.00 | 1 | 1007.7 |
| 20260505101805 | 71 | 41 | 7.0 | 15.6 | 0.00 | 0.00 | 0.00 | 1 | 1007.7 |
| 20260505101705 | 71 | 39 | 7.0 | 15.6 | 0.00 | 0.00 | 0.00 | 1 | 1007.7 |
| 20260505101626 | 71 | 37 | 7.0 | 15.6 | 0.00 | 0.00 | 0.00 | 1 | 1007.8 |
| 20260505101505 | 71 | 38 | 7.0 | 15.6 | 0.00 | 0.00 | 0.00 | 1 | 1007.8 |
| 20260505101405 | 71 | 38 | 7.0 | 15.6 | 0.00 | 0.00 | 0.00 | 1 | 1007.9 |
| 20260505101305 | 71 | 39 | 7.0 | 15.6 | 0.00 | 0.00 | 0.00 | 1 | 1007.8 |
| 20260505101205 | 71 | 39 | 6.1 | 15.6 | 0.00 | 0.00 | 0.00 | 1 | 1007.8 |
| 20260505101126 | 71 | 38 | 6.1 | 15.6 | 0.00 | 0.00 | 0.00 | 1 | 1007.8 |
| 20260505101005 | 71 | 39 | 6.1 | 13.9 | 0.00 | 0.00 | 0.00 | 1 | 1007.7 |
| 20260505100905 | 71 | 39 | 6.1 | 13.9 | 0.00 | 0.00 | 0.00 | 1 | 1007.7 |
| 20260505100826 | 71 | 40 | 5.2 | 13.9 | 0.00 | 0.00 | 0.00 | 1 | 1007.8 |
| 20260505100705 | 71 | 39 | 5.2 | 13.0 | 0.00 | 0.00 | 0.00 | 1 | 1007.8 |
| 20260505100605 | 71 | 41 | 5.2 | 11.3 | 0.00 | 0.00 | 0.00 | 1 | 1007.9 |
| 20260505100526 | 71 | 40 | 5.2 | 11.3 | 0.00 | 0.00 | 0.00 | 1 | 1007.8 |
| 20260505100405 | 71 | 39 | 5.2 | 11.3 | 0.00 | 0.00 | 0.00 | 1 | 1007.9 |
| 20260505100305 | 71 | 38 | 5.2 | 11.3 | 0.00 | 0.00 | 0.00 | 1 | 1007.8 |
| 20260505100205 | 71 | 37 | 5.2 | 11.3 | 0.00 | 0.00 | 0.00 | 1 | 1007.8 |
| 20260505100105 | 71 | 36 | 5.2 | 11.3 | 0.00 | 0.00 | 0.00 | 1 | 1007.7 |
| 20260505100005 | 71 | 37 | 5.2 | 11.3 | 0.00 | 0.00 | 0.00 | 1 | 1007.7 |
| 20260505095905 | 71 | 36 | 6.1 | 11.3 | 0.00 | 0.00 | 0.00 | 1 | 1007.6 |
| 20260505095805 | 71 | 36 | 6.1 | 11.3 | 0.00 | 0.00 | 0.00 | 1 | 1007.6 |
| 20260505095705 | 71 | 36 | 6.1 | 11.3 | 0.00 | 0.00 | 0.00 | 1 | 1007.5 |
| 20260505095626 | 71 | 36 | 6.1 | 11.3 | 0.00 | 0.00 | 0.00 | 1 | 1007.5 |
| 20260505095505 | 71 | 38 | 6.1 | 11.3 | 0.00 | 0.00 | 0.00 | 1 | 1007.5 |
| 20260505095405 | 71 | 38 | 6.1 | 11.3 | 0.00 | 0.00 | 0.00 | 1 | 1007.5 |
| 20260505095326 | 71 | 39 | 7.0 | 13.0 | 0.00 | 0.00 | 0.00 | 1 | 1007.4 |
| 20260505095205 | 71 | 38 | 7.0 | 13.0 | 0.00 | 0.00 | 0.00 | 1 | 1007.5 |
| 20260505095105 | 71 | 39 | 7.0 | 13.0 | 0.00 | 0.00 | 0.00 | 1 | 1007.5 |
| 20260505095005 | 71 | 38 | 7.0 | 13.0 | 0.00 | 0.00 | 0.00 | 1 | 1007.5 |
| 20260505094905 | 71 | 40 | 6.1 | 13.0 | 0.00 | 0.00 | 0.00 | 1 | 1007.6 |
| 20260505094805 | 71 | 42 | 6.1 | 13.0 | 0.00 | 0.00 | 0.00 | 1 | 1007.6 |
| 20260505094705 | 71 | 41 | 5.2 | 13.0 | 0.00 | 0.00 | 0.00 | 1 | 1007.6 |
| 20260505094605 | 71 | 41 | 5.2 | 13.0 | 0.00 | 0.00 | 0.00 | 1 | 1007.6 |
| 20260505094526 | 71 | 40 | 5.2 | 13.0 | 0.00 | 0.00 | 0.00 | 1 | 1007.6 |
| 20260505094405 | 71 | 40 | 5.2 | 13.0 | 0.00 | 0.00 | 0.00 | 1 | 1007.7 |
| 20260505094305 | 71 | 39 | 5.2 | 12.2 | 0.00 | 0.00 | 0.00 | 1 | 1007.7 |
| 20260505094205 | 71 | 40 | 5.2 | 12.2 | 0.00 | 0.00 | 0.00 | 1 | 1007.7 |
| 20260505094105 | 71 | 41 | 5.2 | 12.2 | 0.00 | 0.00 | 0.00 | 1 | 1007.7 |
| 20260505094026 | 71 | 42 | 5.2 | 12.2 | 0.00 | 0.00 | 0.00 | 1 | 1007.7 |
| 20260505093926 | 71 | 39 | 5.2 | 12.2 | 0.00 | 0.00 | 0.00 | 1 | 1007.8 |
| 20260505093826 | 71 | 38 | 5.2 | 12.2 | 0.00 | 0.00 | 0.00 | 1 | 1007.7 |
| 20260505093705 | 71 | 38 | 5.2 | 12.2 | 0.00 | 0.00 | 0.00 | 1 | 1007.8 |
| 20260505093626 | 71 | 38 | 5.2 | 12.2 | 0.00 | 0.00 | 0.00 | 1 | 1007.8 |
| 20260505093505 | 71 | 39 | 5.2 | 12.2 | 0.00 | 0.00 | 0.00 | 1 | 1007.7 |
| 20260505093405 | 71 | 40 | 5.2 | 12.2 | 0.00 | 0.00 | 0.00 | 1 | 1007.8 |
| 20260505093305 | 71 | 39 | 5.2 | 12.2 | 0.00 | 0.00 | 0.00 | 1 | 1007.7 |
| 20260505093205 | 71 | 40 | 5.2 | 12.2 | 0.00 | 0.00 | 0.00 | 1 | 1007.8 |
| 20260505093105 | 71 | 38 | 5.2 | 12.2 | 0.00 | 0.00 | 0.00 | 1 | 1007.8 |
| 20260505093005 | 71 | 39 | 5.2 | 12.2 | 0.00 | 0.00 | 0.00 | 1 | 1007.8 |
| 20260505092905 | 71 | 39 | 5.2 | 11.3 | 0.00 | 0.00 | 0.00 | 1 | 1007.8 |
| 20260505092826 | 71 | 41 | 5.2 | 11.3 | 0.00 | 0.00 | 0.00 | 1 | 1007.8 |
| 20260505092705 | 71 | 40 | 5.2 | 12.2 | 0.00 | 0.00 | 0.00 | 1 | 1007.7 |
| 20260505092605 | 71 | 40 | 6.1 | 12.2 | 0.00 | 0.00 | 0.00 | 1 | 1007.7 |
| 20260505092505 | 71 | 38 | 6.1 | 13.0 | 0.00 | 0.00 | 0.00 | 1 | 1007.6 |
| 20260505092405 | 71 | 37 | 7.0 | 13.0 | 0.00 | 0.00 | 0.00 | 1 | 1007.6 |
| 20260505092305 | 71 | 40 | 7.0 | 13.0 | 0.00 | 0.00 | 0.00 | 1 | 1007.6 |
| 20260505092205 | 71 | 37 | 7.0 | 13.0 | 0.00 | 0.00 | 0.00 | 1 | 1007.5 |
| 20260505092105 | 71 | 38 | 7.0 | 13.0 | 0.00 | 0.00 | 0.00 | 1 | 1007.6 |
| 20260505092005 | 71 | 39 | 7.0 | 13.0 | 0.00 | 0.00 | 0.00 | 1 | 1007.6 |
| 20260505091905 | 71 | 38 | 7.0 | 13.0 | 0.00 | 0.00 | 0.00 | 1 | 1007.6 |
| 20260505091805 | 71 | 35 | 7.0 | 13.0 | 0.00 | 0.00 | 0.00 | 1 | 1007.8 |
| 20260505091705 | 71 | 34 | 7.0 | 13.0 | 0.00 | 0.00 | 0.00 | 1 | 1007.9 |
| 20260505091605 | 71 | 34 | 7.0 | 13.9 | 0.00 | 0.00 | 0.00 | 1 | 1007.8 |
| 20260505091505 | 71 | 34 | 7.0 | 13.9 | 0.00 | 0.00 | 0.00 | 1 | 1007.9 |
| 20260505091426 | 71 | 34 | 7.0 | 13.9 | 0.00 | 0.00 | 0.00 | 1 | 1007.9 |
| 20260505091305 | 71 | 32 | 6.1 | 13.9 | 0.00 | 0.00 | 0.00 | 1 | 1008.0 |
| 20260505091205 | 71 | 35 | 7.0 | 14.8 | 0.00 | 0.00 | 0.00 | 1 | 1007.9 |
| 20260505091105 | 71 | 34 | 7.0 | 14.8 | 0.00 | 0.00 | 0.00 | 1 | 1007.9 |
| 20260505091026 | 71 | 34 | 7.0 | 14.8 | 0.00 | 0.00 | 0.00 | 1 | 1007.8 |
| 20260505090905 | 71 | 35 | 6.1 | 14.8 | 0.00 | 0.00 | 0.00 | 1 | 1007.8 |
| 20260505090805 | 71 | 36 | 6.1 | 14.8 | 0.00 | 0.00 | 0.00 | 1 | 1007.9 |
| 20260505090705 | 71 | 39 | 6.1 | 14.8 | 0.00 | 0.00 | 0.00 | 1 | 1007.8 |
| 20260505090605 | 71 | 40 | 7.0 | 14.8 | 0.00 | 0.00 | 0.00 | 1 | 1007.8 |
| 20260505090505 | 71 | 40 | 7.0 | 14.8 | 0.00 | 0.00 | 0.00 | 1 | 1007.9 |
| 20260505090405 | 71 | 40 | 7.0 | 14.8 | 0.00 | 0.00 | 0.00 | 1 | 1007.9 |
| 20260505090305 | 71 | 40 | 7.0 | 14.8 | 0.00 | 0.00 | 0.00 | 1 | 1007.9 |
| 20260505090205 | 71 | 40 | 7.0 | 13.9 | 0.00 | 0.00 | 0.00 | 1 | 1007.9 |
| 20260505090105 | 71 | 41 | 7.0 | 13.9 | 0.00 | 0.00 | 0.00 | 1 | 1007.9 |
| 20260505090005 | 71 | 43 | 7.0 | 13.9 | 0.00 | 0.00 | 0.00 | 1 | 1007.8 |
| 20260505085926 | 71 | 42 | 7.0 | 13.9 | 0.00 | 0.00 | 0.00 | 1 | 1007.8 |
| 20260505085805 | 71 | 41 | 7.0 | 13.9 | 0.00 | 0.00 | 0.00 | 1 | 1007.8 |
| 20260505085705 | 71 | 41 | 7.0 | 13.9 | 0.00 | 0.00 | 0.00 | 1 | 1007.8 |
| 20260505085605 | 71 | 42 | 7.0 | 12.2 | 0.00 | 0.00 | 0.00 | 1 | 1007.8 |
| 20260505085505 | 71 | 42 | 6.1 | 12.2 | 0.00 | 0.00 | 0.00 | 1 | 1007.8 |
| 20260505085405 | 72 | 42 | 7.0 | 13.0 | 0.00 | 0.00 | 0.00 | 1 | 1007.8 |
| 20260505085326 | 72 | 43 | 7.0 | 13.0 | 0.00 | 0.00 | 0.00 | 1 | 1007.8 |
| 20260505085205 | 71 | 43 | 7.0 | 13.0 | 0.00 | 0.00 | 0.00 | 1 | 1007.8 |
| 20260505085105 | 72 | 42 | 7.0 | 13.0 | 0.00 | 0.00 | 0.00 | 1 | 1007.8 |
| 20260505085005 | 71 | 42 | 7.0 | 13.0 | 0.00 | 0.00 | 0.00 | 1 | 1007.9 |
| 20260505084905 | 71 | 42 | 7.0 | 13.0 | 0.00 | 0.00 | 0.00 | 1 | 1007.9 |
| 20260505084805 | 72 | 43 | 7.0 | 13.0 | 0.00 | 0.00 | 0.00 | 1 | 1007.9 |
| 20260505084705 | 72 | 41 | 7.8 | 13.9 | 0.00 | 0.00 | 0.00 | 1 | 1007.9 |
| 20260505084605 | 72 | 40 | 7.8 | 15.6 | 0.00 | 0.00 | 0.00 | 1 | 1007.9 |
| 20260505084505 | 71 | 40 | 7.8 | 15.6 | 0.00 | 0.00 | 0.00 | 1 | 1008.0 |
| 20260505084405 | 71 | 39 | 8.7 | 15.6 | 0.00 | 0.00 | 0.00 | 1 | 1007.9 |
| 20260505084305 | 71 | 40 | 7.8 | 15.6 | 0.00 | 0.00 | 0.00 | 1 | 1007.9 |
| 20260505084205 | 71 | 40 | 7.8 | 15.6 | 0.00 | 0.00 | 0.00 | 1 | 1007.9 |
| 20260505084105 | 71 | 40 | 7.8 | 15.6 | 0.00 | 0.00 | 0.00 | 1 | 1007.8 |
| 20260505084005 | 71 | 40 | 7.8 | 15.6 | 0.00 | 0.00 | 0.00 | 1 | 1007.8 |
| 20260505083905 | 72 | 40 | 7.8 | 15.6 | 0.00 | 0.00 | 0.00 | 1 | 1007.8 |
| 20260505083805 | 71 | 39 | 7.8 | 15.6 | 0.00 | 0.00 | 0.00 | 1 | 1007.8 |
| 20260505083705 | 71 | 40 | 7.8 | 15.6 | 0.00 | 0.00 | 0.00 | 1 | 1007.8 |
| 20260505083605 | 71 | 39 | 8.7 | 20.0 | 0.00 | 0.00 | 0.00 | 1 | 1007.8 |
| 20260505083505 | 71 | 37 | 7.8 | 20.0 | 0.00 | 0.00 | 0.00 | 1 | 1008.0 |
| 20260505083405 | 72 | 37 | 7.8 | 20.0 | 0.00 | 0.00 | 0.00 | 1 | 1008.1 |
| 20260505083305 | 72 | 35 | 7.8 | 20.0 | 0.00 | 0.00 | 0.00 | 1 | 1008.1 |
| 20260505083226 | 72 | 37 | 7.8 | 20.0 | 0.00 | 0.00 | 0.00 | 1 | 1008.1 |
| 20260505083105 | 72 | 37 | 7.8 | 20.0 | 0.00 | 0.00 | 0.00 | 1 | 1008.2 |
| 20260505083005 | 72 | 36 | 8.7 | 20.0 | 0.00 | 0.00 | 0.00 | 1 | 1008.2 |
| 20260505082905 | 72 | 35 | 8.7 | 20.0 | 0.00 | 0.00 | 0.00 | 1 | 1008.2 |
| 20260505082805 | 72 | 36 | 7.8 | 20.0 | 0.00 | 0.00 | 0.00 | 1 | 1008.1 |
| 20260505082705 | 72 | 37 | 7.8 | 20.0 | 0.00 | 0.00 | 0.00 | 1 | 1008.1 |
| 20260505082605 | 72 | 37 | 7.8 | 17.4 | 0.00 | 0.00 | 0.00 | 1 | 1008.1 |
| 20260505082505 | 72 | 38 | 7.8 | 17.4 | 0.00 | 0.00 | 0.00 | 1 | 1008.1 |
| 20260505082426 | 72 | 36 | 7.8 | 17.4 | 0.00 | 0.00 | 0.00 | 1 | 1008.1 |
| 20260505082305 | 72 | 37 | 7.8 | 17.4 | 0.00 | 0.00 | 0.00 | 1 | 1008.1 |
| 20260505082205 | 72 | 37 | 7.8 | 17.4 | 0.00 | 0.00 | 0.00 | 1 | 1008.1 |
| 20260505082105 | 72 | 35 | 7.8 | 17.4 | 0.00 | 0.00 | 0.00 | 1 | 1008.1 |
| 20260505082005 | 72 | 33 | 8.7 | 17.4 | 0.00 | 0.00 | 0.00 | 1 | 1008.1 |
| 20260505081926 | 72 | 33 | 8.7 | 17.4 | 0.00 | 0.00 | 0.00 | 1 | 1008.1 |
| 20260505081805 | 72 | 31 | 8.7 | 17.4 | 0.00 | 0.00 | 0.00 | 1 | 1008.2 |
| 20260505081726 | 72 | 31 | 8.7 | 17.4 | 0.00 | 0.00 | 0.00 | 1 | 1008.1 |
| 20260505081626 | 72 | 30 | 8.7 | 17.4 | 0.00 | 0.00 | 0.00 | 1 | 1008.2 |
| 20260505081505 | 72 | 32 | 8.7 | 17.4 | 0.00 | 0.00 | 0.00 | 1 | 1008.1 |
| 20260505081426 | 72 | 32 | 8.7 | 17.4 | 0.00 | 0.00 | 0.00 | 1 | 1008.1 |
| 20260505081305 | 72 | 32 | 8.7 | 17.4 | 0.00 | 0.00 | 0.00 | 1 | 1008.2 |
| 20260505081205 | 72 | 30 | 8.7 | 17.4 | 0.00 | 0.00 | 0.00 | 1 | 1008.1 |
| 20260505081105 | 72 | 32 | 8.7 | 17.4 | 0.00 | 0.00 | 0.00 | 1 | 1008.2 |
| 20260505081026 | 72 | 33 | 7.8 | 17.4 | 0.00 | 0.00 | 0.00 | 1 | 1008.2 |
| 20260505080905 | 72 | 36 | 7.8 | 15.6 | 0.00 | 0.00 | 0.00 | 1 | 1008.2 |
| 20260505080826 | 72 | 37 | 7.8 | 15.6 | 0.00 | 0.00 | 0.00 | 1 | 1008.3 |
| 20260505080705 | 72 | 38 | 7.8 | 15.6 | 0.00 | 0.00 | 0.00 | 1 | 1008.3 |
| 20260505080626 | 72 | 38 | 7.8 | 14.8 | 0.00 | 0.00 | 0.00 | 1 | 1008.3 |
| 20260505080505 | 72 | 37 | 7.8 | 14.8 | 0.00 | 0.00 | 0.00 | 1 | 1008.3 |
| 20260505080405 | 72 | 37 | 7.8 | 16.5 | 0.00 | 0.00 | 0.00 | 1 | 1008.3 |
| 20260505080305 | 72 | 37 | 7.8 | 16.5 | 0.00 | 0.00 | 0.00 | 1 | 1008.3 |
| 20260505080205 | 72 | 38 | 7.8 | 16.5 | 0.00 | 0.00 | 0.00 | 1 | 1008.3 |
| 20260505080105 | 72 | 36 | 7.8 | 18.2 | 0.00 | 0.00 | 0.00 | 1 | 1008.2 |
| 20260505080005 | 72 | 36 | 8.7 | 18.2 | 0.00 | 0.00 | 0.00 | 1 | 1008.2 |
| 20260505075905 | 72 | 38 | 8.7 | 19.1 | 0.00 | 0.00 | 0.00 | 1 | 1008.2 |
| 20260505075805 | 72 | 37 | 9.6 | 19.1 | 0.00 | 0.00 | 0.00 | 1 | 1008.2 |
| 20260505075705 | 72 | 37 | 9.6 | 19.1 | 0.00 | 0.00 | 0.00 | 1 | 1008.3 |
| 20260505075626 | 72 | 36 | 9.6 | 19.1 | 0.00 | 0.00 | 0.00 | 1 | 1008.3 |
| 20260505075505 | 72 | 36 | 9.6 | 19.1 | 0.00 | 0.00 | 0.00 | 1 | 1008.3 |
| 20260505075405 | 72 | 36 | 9.6 | 19.1 | 0.00 | 0.00 | 0.00 | 1 | 1008.4 |
| 20260505075305 | 72 | 35 | 9.6 | 19.1 | 0.00 | 0.00 | 0.00 | 1 | 1008.4 |
| 20260505075226 | 72 | 34 | 8.7 | 19.1 | 0.00 | 0.00 | 0.00 | 1 | 1008.4 |
| 20260505075105 | 72 | 36 | 8.7 | 19.1 | 0.00 | 0.00 | 0.00 | 1 | 1008.4 |
| 20260505075026 | 72 | 35 | 8.7 | 19.1 | 0.00 | 0.00 | 0.00 | 1 | 1008.5 |
| 20260505074905 | 72 | 35 | 7.8 | 16.5 | 0.00 | 0.00 | 0.00 | 1 | 1008.5 |
| 20260505074805 | 72 | 35 | 7.8 | 16.5 | 0.00 | 0.00 | 0.00 | 1 | 1008.5 |
| 20260505074705 | 72 | 36 | 7.8 | 16.5 | 0.00 | 0.00 | 0.00 | 1 | 1008.4 |
| 20260505074605 | 72 | 35 | 7.8 | 16.5 | 0.00 | 0.00 | 0.00 | 1 | 1008.4 |
| 20260505074505 | 72 | 36 | 7.8 | 16.5 | 0.00 | 0.00 | 0.00 | 1 | 1008.4 |
| 20260505074405 | 72 | 36 | 7.8 | 14.8 | 0.00 | 0.00 | 0.00 | 1 | 1008.4 |
| 20260505074305 | 72 | 36 | 7.8 | 14.8 | 0.00 | 0.00 | 0.00 | 1 | 1008.5 |
| 20260505074205 | 72 | 38 | 7.8 | 14.8 | 0.00 | 0.00 | 0.00 | 1 | 1008.5 |
| 20260505074105 | 72 | 38 | 7.0 | 14.8 | 0.00 | 0.00 | 0.00 | 1 | 1008.5 |
| 20260505074005 | 72 | 36 | 7.0 | 14.8 | 0.00 | 0.00 | 0.00 | 1 | 1008.5 |
| 20260505073926 | 72 | 38 | 7.0 | 13.0 | 0.00 | 0.00 | 0.00 | 1 | 1008.5 |
| 20260505073805 | 72 | 37 | 7.0 | 11.3 | 0.00 | 0.00 | 0.00 | 1 | 1008.6 |
| 20260505073705 | 72 | 35 | 7.0 | 13.0 | 0.00 | 0.00 | 0.00 | 1 | 1008.6 |
| 20260505073626 | 72 | 36 | 7.0 | 13.0 | 0.00 | 0.00 | 0.00 | 1 | 1008.6 |
| 20260505073505 | 72 | 37 | 6.1 | 13.0 | 0.00 | 0.00 | 0.00 | 1 | 1008.6 |
| 20260505073405 | 72 | 37 | 6.1 | 13.0 | 0.00 | 0.00 | 0.00 | 1 | 1008.6 |
| 20260505073305 | 72 | 37 | 7.0 | 13.0 | 0.00 | 0.00 | 0.00 | 1 | 1008.7 |
| 20260505073226 | 72 | 37 | 7.0 | 13.0 | 0.00 | 0.00 | 0.00 | 1 | 1008.7 |
| 20260505073105 | 72 | 35 | 7.0 | 13.0 | 0.00 | 0.00 | 0.00 | 1 | 1008.6 |
| 20260505073005 | 72 | 36 | 7.0 | 13.0 | 0.00 | 0.00 | 0.00 | 1 | 1008.6 |
| 20260505072905 | 72 | 36 | 7.0 | 13.0 | 0.00 | 0.00 | 0.00 | 1 | 1008.7 |
| 20260505072805 | 72 | 36 | 7.0 | 14.8 | 0.00 | 0.00 | 0.00 | 1 | 1008.8 |
| 20260505072705 | 72 | 36 | 7.0 | 14.8 | 0.00 | 0.00 | 0.00 | 1 | 1008.7 |
| 20260505072605 | 72 | 36 | 7.0 | 14.8 | 0.00 | 0.00 | 0.00 | 1 | 1008.7 |
| 20260505072505 | 72 | 36 | 7.8 | 20.0 | 0.00 | 0.00 | 0.00 | 1 | 1008.7 |
| 20260505072405 | 72 | 36 | 7.8 | 20.0 | 0.00 | 0.00 | 0.00 | 1 | 1008.8 |
| 20260505072305 | 72 | 37 | 7.8 | 20.0 | 0.00 | 0.00 | 0.00 | 1 | 1008.8 |
| 20260505072205 | 72 | 37 | 7.8 | 20.0 | 0.00 | 0.00 | 0.00 | 1 | 1008.8 |
| 20260505072105 | 72 | 35 | 7.8 | 20.0 | 0.00 | 0.00 | 0.00 | 1 | 1008.8 |
| 20260505072005 | 72 | 36 | 7.8 | 20.0 | 0.00 | 0.00 | 0.00 | 1 | 1008.9 |
| 20260505071905 | 72 | 35 | 7.8 | 20.0 | 0.00 | 0.00 | 0.00 | 1 | 1008.9 |
| 20260505071805 | 72 | 37 | 7.8 | 20.0 | 0.00 | 0.00 | 0.00 | 1 | 1008.9 |
| 20260505071726 | 72 | 38 | 7.0 | 20.0 | 0.00 | 0.00 | 0.00 | 1 | 1008.9 |
| 20260505071605 | 72 | 37 | 7.0 | 20.0 | 0.00 | 0.00 | 0.00 | 1 | 1009.0 |
| 20260505071505 | 72 | 37 | 7.8 | 13.0 | 0.00 | 0.00 | 0.00 | 1 | 1008.9 |
| 20260505071405 | 72 | 35 | 7.8 | 13.0 | 0.00 | 0.00 | 0.00 | 1 | 1008.9 |
| 20260505071305 | 72 | 35 | 7.8 | 13.0 | 0.00 | 0.00 | 0.00 | 1 | 1009.0 |
| 20260505071205 | 72 | 35 | 7.8 | 13.0 | 0.00 | 0.00 | 0.00 | 1 | 1009.0 |
| 20260505071105 | 72 | 35 | 7.8 | 13.0 | 0.00 | 0.00 | 0.00 | 1 | 1009.0 |
| 20260505071005 | 72 | 36 | 7.8 | 16.5 | 0.00 | 0.00 | 0.00 | 1 | 1009.0 |
| 20260505070926 | 72 | 35 | 7.8 | 16.5 | 0.00 | 0.00 | 0.00 | 1 | 1009.0 |
| 20260505070805 | 72 | 34 | 7.8 | 16.5 | 0.00 | 0.00 | 0.00 | 1 | 1009.1 |
| 20260505070726 | 72 | 33 | 7.8 | 16.5 | 0.00 | 0.00 | 0.00 | 1 | 1009.0 |
| 20260505070605 | 72 | 33 | 7.8 | 16.5 | 0.00 | 0.00 | 0.00 | 1 | 1009.0 |
| 20260505070505 | 72 | 32 | 7.0 | 16.5 | 0.00 | 0.00 | 0.00 | 1 | 1009.0 |
| 20260505070405 | 72 | 32 | 7.0 | 16.5 | 0.00 | 0.00 | 0.00 | 1 | 1009.0 |
| 20260505070305 | 72 | 33 | 7.0 | 16.5 | 0.00 | 0.00 | 0.00 | 1 | 1009.1 |
| 20260505070205 | 72 | 35 | 7.0 | 16.5 | 0.00 | 0.00 | 0.00 | 1 | 1009.1 |
| 20260505070105 | 72 | 36 | 6.1 | 16.5 | 0.00 | 0.00 | 0.00 | 1 | 1009.1 |
| 20260505070005 | 72 | 33 | 6.1 | 15.6 | 0.00 | 0.00 | 0.00 | 1 | 1009.2 |
| 20260505065905 | 72 | 35 | 6.1 | 15.6 | 0.00 | 0.00 | 0.00 | 1 | 1009.1 |
| 20260505065805 | 72 | 35 | 6.1 | 13.0 | 0.00 | 0.00 | 0.00 | 1 | 1009.1 |
| 20260505065705 | 72 | 35 | 6.1 | 11.3 | 0.00 | 0.00 | 0.00 | 1 | 1009.2 |
| 20260505065605 | 72 | 35 | 6.1 | 11.3 | 0.00 | 0.00 | 0.00 | 1 | 1009.2 |
| 20260505065526 | 72 | 34 | 7.0 | 11.3 | 0.00 | 0.00 | 0.00 | 1 | 1009.2 |
| 20260505065405 | 72 | 35 | 7.0 | 11.3 | 0.00 | 0.00 | 0.00 | 1 | 1009.2 |
| 20260505065305 | 72 | 32 | 7.0 | 13.9 | 0.00 | 0.00 | 0.00 | 1 | 1009.2 |
| 20260505065205 | 72 | 31 | 7.8 | 17.4 | 0.00 | 0.00 | 0.00 | 1 | 1009.2 |
| 20260505065126 | 72 | 30 | 7.8 | 17.4 | 0.00 | 0.00 | 0.00 | 1 | 1009.2 |
| 20260505065026 | 72 | 31 | 7.8 | 17.4 | 0.00 | 0.00 | 0.00 | 1 | 1009.2 |
| 20260505064905 | 72 | 28 | 7.8 | 17.4 | 0.00 | 0.00 | 0.00 | 1 | 1009.1 |
| 20260505064805 | 72 | 29 | 7.8 | 17.4 | 0.00 | 0.00 | 0.00 | 1 | 1009.2 |
| 20260505064705 | 72 | 28 | 7.0 | 17.4 | 0.00 | 0.00 | 0.00 | 1 | 1009.2 |
| 20260505064605 | 72 | 29 | 7.8 | 17.4 | 0.00 | 0.00 | 0.00 | 1 | 1009.2 |
| 20260505064505 | 72 | 31 | 7.8 | 17.4 | 0.00 | 0.00 | 0.00 | 1 | 1009.1 |
| 20260505064405 | 72 | 31 | 7.8 | 17.4 | 0.00 | 0.00 | 0.00 | 1 | 1009.1 |
| 20260505064305 | 72 | 33 | 7.0 | 17.4 | 0.00 | 0.00 | 0.00 | 1 | 1009.1 |
| 20260505064205 | 72 | 33 | 7.0 | 16.5 | 0.00 | 0.00 | 0.00 | 1 | 1009.2 |
| 20260505064105 | 72 | 32 | 7.0 | 12.2 | 0.00 | 0.00 | 0.00 | 1 | 1009.2 |
| 20260505064026 | 72 | 31 | 7.0 | 12.2 | 0.00 | 0.00 | 0.00 | 1 | 1009.3 |
| 20260505063905 | 72 | 33 | 7.8 | 13.9 | 0.00 | 0.00 | 0.00 | 1 | 1009.3 |
| 20260505063805 | 72 | 32 | 7.8 | 15.6 | 0.00 | 0.00 | 0.00 | 1 | 1009.3 |
| 20260505063705 | 72 | 32 | 7.8 | 15.6 | 0.00 | 0.00 | 0.00 | 1 | 1009.3 |
| 20260505063605 | 72 | 32 | 7.8 | 15.6 | 0.00 | 0.00 | 0.00 | 1 | 1009.3 |
| 20260505063505 | 72 | 32 | 7.8 | 15.6 | 0.00 | 0.00 | 0.00 | 1 | 1009.3 |
| 20260505063405 | 72 | 33 | 7.8 | 15.6 | 0.00 | 0.00 | 0.00 | 1 | 1009.4 |
| 20260505063305 | 72 | 32 | 7.8 | 15.6 | 0.00 | 0.00 | 0.00 | 1 | 1009.4 |
| 20260505063205 | 72 | 32 | 7.8 | 15.6 | 0.00 | 0.00 | 0.00 | 1 | 1009.4 |
| 20260505063105 | 72 | 35 | 7.8 | 15.6 | 0.00 | 0.00 | 0.00 | 1 | 1009.4 |
| 20260505063005 | 72 | 34 | 7.0 | 15.6 | 0.00 | 0.00 | 0.00 | 1 | 1009.5 |
| 20260505062926 | 72 | 34 | 7.0 | 15.6 | 0.00 | 0.00 | 0.00 | 1 | 1009.5 |
| 20260505062805 | 72 | 34 | 7.0 | 13.0 | 0.00 | 0.00 | 0.00 | 1 | 1009.5 |
| 20260505062705 | 72 | 35 | 7.0 | 13.0 | 0.00 | 0.00 | 0.00 | 1 | 1009.6 |
| 20260505062604 | 72 | 35 | 7.0 | 13.0 | 0.00 | 0.00 | 0.00 | 1 | 1009.5 |
| 20260505062505 | 72 | 35 | 7.0 | 13.0 | 0.00 | 0.00 | 0.00 | 1 | 1009.5 |
| 20260505062405 | 72 | 35 | 7.0 | 13.0 | 0.00 | 0.00 | 0.00 | 1 | 1009.5 |
| 20260505062305 | 72 | 33 | 6.1 | 13.0 | 0.00 | 0.00 | 0.00 | 1 | 1009.5 |
| 20260505062205 | 72 | 35 | 7.0 | 13.0 | 0.00 | 0.00 | 0.00 | 1 | 1009.5 |
| 20260505062126 | 72 | 33 | 6.1 | 13.0 | 0.00 | 0.00 | 0.00 | 1 | 1009.5 |
| 20260505062005 | 72 | 34 | 6.1 | 13.0 | 0.00 | 0.00 | 0.00 | 1 | 1009.5 |
| 20260505061905 | 72 | 34 | 7.0 | 13.0 | 0.00 | 0.00 | 0.00 | 1 | 1009.5 |
| 20260505061805 | 72 | 37 | 7.0 | 12.2 | 0.00 | 0.00 | 0.00 | 1 | 1009.5 |
| 20260505061705 | 72 | 37 | 7.0 | 11.3 | 0.00 | 0.00 | 0.00 | 1 | 1009.5 |
| 20260505061605 | 72 | 36 | 7.0 | 15.6 | 0.00 | 0.00 | 0.00 | 1 | 1009.6 |
| 20260505061505 | 72 | 36 | 7.0 | 15.6 | 0.00 | 0.00 | 0.00 | 1 | 1009.6 |
| 20260505061405 | 72 | 37 | 7.0 | 16.5 | 0.00 | 0.00 | 0.00 | 1 | 1009.6 |
| 20260505061326 | 72 | 37 | 7.8 | 16.5 | 0.00 | 0.00 | 0.00 | 1 | 1009.6 |
| 20260505061205 | 72 | 34 | 7.8 | 16.5 | 0.00 | 0.00 | 0.00 | 1 | 1009.6 |
| 20260505061105 | 72 | 35 | 7.8 | 16.5 | 0.00 | 0.00 | 0.00 | 1 | 1009.6 |
| 20260505061005 | 72 | 35 | 7.8 | 16.5 | 0.00 | 0.00 | 0.00 | 1 | 1009.5 |
| 20260505060905 | 72 | 34 | 7.8 | 16.5 | 0.00 | 0.00 | 0.00 | 1 | 1009.6 |
| 20260505060826 | 72 | 33 | 7.0 | 16.5 | 0.00 | 0.00 | 0.00 | 1 | 1009.5 |
| 20260505060705 | 72 | 31 | 7.0 | 16.5 | 0.00 | 0.00 | 0.00 | 1 | 1009.5 |
| 20260505060605 | 72 | 33 | 7.0 | 16.5 | 0.00 | 0.00 | 0.00 | 1 | 1009.6 |
| 20260505060505 | 72 | 32 | 7.0 | 16.5 | 0.00 | 0.00 | 0.00 | 1 | 1009.6 |
| 20260505060405 | 72 | 30 | 7.0 | 15.6 | 0.00 | 0.00 | 0.00 | 1 | 1009.6 |
| 20260505060305 | 72 | 31 | 7.0 | 15.6 | 0.00 | 0.00 | 0.00 | 1 | 1009.6 |
| 20260505060205 | 72 | 33 | 7.0 | 15.6 | 0.00 | 0.00 | 0.00 | 1 | 1009.6 |
| 20260505060105 | 72 | 34 | 7.0 | 13.9 | 0.00 | 0.00 | 0.00 | 1 | 1009.6 |
| 20260505060005 | 72 | 35 | 7.0 | 13.9 | 0.00 | 0.00 | 0.00 | 1 | 1009.6 |
| 20260505055905 | 72 | 34 | 7.0 | 13.9 | 0.00 | 0.00 | 0.00 | 1 | 1009.6 |
| 20260505055805 | 72 | 34 | 7.8 | 13.9 | 0.00 | 0.00 | 0.00 | 1 | 1009.6 |
| 20260505055705 | 72 | 33 | 7.8 | 13.9 | 0.00 | 0.00 | 0.00 | 1 | 1009.6 |
| 20260505055605 | 72 | 32 | 7.8 | 13.9 | 0.00 | 0.00 | 0.00 | 1 | 1009.6 |
| 20260505055505 | 72 | 32 | 7.8 | 13.9 | 0.00 | 0.00 | 0.00 | 1 | 1009.6 |
| 20260505055405 | 72 | 33 | 7.8 | 13.9 | 0.00 | 0.00 | 0.00 | 1 | 1009.6 |
| 20260505055305 | 72 | 34 | 7.0 | 13.9 | 0.00 | 0.00 | 0.00 | 1 | 1009.5 |
| 20260505055205 | 72 | 33 | 7.0 | 13.9 | 0.00 | 0.00 | 0.00 | 1 | 1009.5 |
| 20260505055105 | 72 | 34 | 7.0 | 13.9 | 0.00 | 0.00 | 0.00 | 1 | 1009.6 |
| 20260505055005 | 72 | 34 | 7.0 | 13.9 | 0.00 | 0.00 | 0.00 | 1 | 1009.5 |
| 20260505054905 | 72 | 36 | 7.0 | 13.9 | 0.00 | 0.00 | 0.00 | 1 | 1009.5 |
| 20260505054805 | 72 | 36 | 7.0 | 12.2 | 0.00 | 0.00 | 0.00 | 1 | 1009.5 |
| 20260505054705 | 72 | 35 | 7.0 | 13.0 | 0.00 | 0.00 | 0.00 | 1 | 1009.5 |
| 20260505054626 | 72 | 36 | 7.0 | 13.0 | 0.00 | 0.00 | 0.00 | 1 | 1009.5 |
| 20260505054526 | 72 | 35 | 7.0 | 13.0 | 0.00 | 0.00 | 0.00 | 1 | 1009.5 |
| 20260505054405 | 72 | 35 | 7.0 | 13.0 | 0.00 | 0.00 | 0.00 | 1 | 1009.6 |
| 20260505054305 | 72 | 35 | 7.0 | 13.0 | 0.00 | 0.00 | 0.00 | 1 | 1009.5 |
| 20260505054205 | 72 | 34 | 7.0 | 13.0 | 0.00 | 0.00 | 0.00 | 1 | 1009.6 |
| 20260505054105 | 72 | 33 | 7.0 | 13.0 | 0.00 | 0.00 | 0.00 | 1 | 1009.5 |
| 20260505054004 | 72 | 33 | 7.0 | 13.0 | 0.00 | 0.00 | 0.00 | 1 | 1009.5 |
| 20260505053905 | 72 | 31 | 7.0 | 13.0 | 0.00 | 0.00 | 0.00 | 1 | 1009.5 |
| 20260505053805 | 72 | 33 | 7.0 | 13.9 | 0.00 | 0.00 | 0.00 | 1 | 1009.5 |
| 20260505053705 | 72 | 32 | 7.0 | 13.9 | 0.00 | 0.00 | 0.00 | 1 | 1009.5 |
| 20260505053605 | 72 | 33 | 7.0 | 13.9 | 0.00 | 0.00 | 0.00 | 1 | 1009.6 |
| 20260505053505 | 72 | 32 | 7.0 | 13.9 | 0.00 | 0.00 | 0.00 | 1 | 1009.6 |
| 20260505053405 | 72 | 31 | 7.0 | 13.9 | 0.00 | 0.00 | 0.00 | 1 | 1009.5 |
| 20260505053305 | 72 | 30 | 7.0 | 13.9 | 0.00 | 0.00 | 0.00 | 1 | 1009.6 |
| 20260505053205 | 72 | 30 | 7.0 | 13.9 | 0.00 | 0.00 | 0.00 | 1 | 1009.5 |
| 20260505053105 | 72 | 30 | 7.0 | 13.9 | 0.00 | 0.00 | 0.00 | 1 | 1009.5 |
| 20260505053005 | 72 | 28 | 7.0 | 13.9 | 0.00 | 0.00 | 0.00 | 1 | 1009.5 |
| 20260505052905 | 72 | 27 | 7.0 | 13.9 | 0.00 | 0.00 | 0.00 | 1 | 1009.5 |
| 20260505052805 | 72 | 24 | 6.1 | 13.9 | 0.00 | 0.00 | 0.00 | 1 | 1009.5 |
| 20260505052705 | 72 | 26 | 7.0 | 13.9 | 0.00 | 0.00 | 0.00 | 1 | 1009.5 |
| 20260505052605 | 72 | 26 | 7.0 | 13.9 | 0.00 | 0.00 | 0.00 | 1 | 1009.5 |
| 20260505052505 | 72 | 28 | 6.1 | 13.9 | 0.00 | 0.00 | 0.00 | 1 | 1009.5 |
| 20260505052405 | 72 | 28 | 7.0 | 13.0 | 0.00 | 0.00 | 0.00 | 1 | 1009.5 |
| 20260505052305 | 72 | 29 | 6.1 | 13.0 | 0.00 | 0.00 | 0.00 | 1 | 1009.5 |
| 20260505052205 | 72 | 31 | 6.1 | 13.0 | 0.00 | 0.00 | 0.00 | 1 | 1009.5 |
| 20260505052105 | 72 | 30 | 6.1 | 13.0 | 0.00 | 0.00 | 0.00 | 1 | 1009.5 |
| 20260505052005 | 72 | 33 | 6.1 | 13.0 | 0.00 | 0.00 | 0.00 | 1 | 1009.5 |
| 20260505051905 | 72 | 32 | 6.1 | 13.0 | 0.00 | 0.00 | 0.00 | 1 | 1009.6 |
| 20260505051805 | 72 | 33 | 6.1 | 12.2 | 0.00 | 0.00 | 0.00 | 1 | 1009.5 |
| 20260505051705 | 72 | 33 | 6.1 | 12.2 | 0.00 | 0.00 | 0.00 | 1 | 1009.5 |
| 20260505051605 | 72 | 33 | 6.1 | 12.2 | 0.00 | 0.00 | 0.00 | 1 | 1009.5 |
| 20260505051525 | 72 | 33 | 6.1 | 12.2 | 0.00 | 0.00 | 0.00 | 1 | 1009.5 |
| 20260505051405 | 72 | 36 | 5.2 | 12.2 | 0.00 | 0.00 | 0.00 | 1 | 1009.5 |
| 20260505051326 | 72 | 37 | 6.1 | 12.2 | 0.00 | 0.00 | 0.00 | 1 | 1009.4 |
| 20260505051205 | 72 | 37 | 6.1 | 12.2 | 0.00 | 0.00 | 0.00 | 1 | 1009.3 |
| 20260505051105 | 72 | 36 | 6.1 | 12.2 | 0.00 | 0.00 | 0.00 | 1 | 1009.3 |
| 20260505051026 | 72 | 34 | 6.1 | 12.2 | 0.00 | 0.00 | 0.00 | 1 | 1009.4 |
| 20260505050905 | 72 | 36 | 6.1 | 13.0 | 0.00 | 0.00 | 0.00 | 1 | 1009.4 |
| 20260505050805 | 72 | 37 | 6.1 | 13.0 | 0.00 | 0.00 | 0.00 | 1 | 1009.4 |
| 20260505050705 | 72 | 36 | 6.1 | 13.0 | 0.00 | 0.00 | 0.00 | 1 | 1009.4 |
| 20260505050626 | 72 | 37 | 6.1 | 13.0 | 0.00 | 0.00 | 0.00 | 1 | 1009.4 |
| 20260505050505 | 72 | 37 | 6.1 | 13.0 | 0.00 | 0.00 | 0.00 | 1 | 1009.5 |
| 20260505050405 | 72 | 36 | 6.1 | 13.0 | 0.00 | 0.00 | 0.00 | 1 | 1009.5 |
| 20260505050305 | 72 | 35 | 6.1 | 13.0 | 0.00 | 0.00 | 0.00 | 1 | 1009.6 |
| 20260505050205 | 72 | 34 | 6.1 | 13.0 | 0.00 | 0.00 | 0.00 | 1 | 1009.6 |
| 20260505050105 | 72 | 36 | 5.2 | 13.0 | 0.00 | 0.00 | 0.00 | 1 | 1009.6 |
| 20260505041705 | 72 | 24 | 6.1 | 13.0 | 0.00 | 0.00 | 0.00 | 1 | 1009.3 |
| 20260505041605 | 73 | 26 | 6.1 | 13.0 | 0.00 | 0.00 | 0.00 | 1 | 1009.4 |
| 20260505041505 | 73 | 26 | 5.2 | 12.2 | 0.00 | 0.00 | 0.00 | 1 | 1009.3 |
| 20260505041405 | 73 | 25 | 5.2 | 11.3 | 0.00 | 0.00 | 0.00 | 1 | 1009.4 |
| 20260505041305 | 73 | 24 | 5.2 | 11.3 | 0.00 | 0.00 | 0.00 | 1 | 1009.4 |
| 20260505041226 | 73 | 23 | 5.2 | 11.3 | 0.00 | 0.00 | 0.00 | 1 | 1009.4 |
| 20260505041105 | 73 | 27 | 5.2 | 11.3 | 0.00 | 0.00 | 0.00 | 1 | 1009.4 |
| 20260505041026 | 73 | 24 | 5.2 | 11.3 | 0.00 | 0.00 | 0.00 | 1 | 1009.4 |
| 20260505040905 | 73 | 24 | 5.2 | 11.3 | 0.00 | 0.00 | 0.00 | 1 | 1009.4 |
| 20260505040826 | 73 | 27 | 5.2 | 11.3 | 0.00 | 0.00 | 0.00 | 1 | 1009.4 |
| 20260505040726 | 73 | 26 | 5.2 | 11.3 | 0.00 | 0.00 | 0.00 | 1 | 1009.4 |
| 20260505040626 | 73 | 24 | 4.3 | 11.3 | 0.00 | 0.00 | 0.00 | 1 | 1009.4 |
| 20260505040505 | 73 | 26 | 4.3 | 11.3 | 0.00 | 0.00 | 0.00 | 1 | 1009.4 |
| 20260505040405 | 73 | 25 | 4.3 | 11.3 | 0.00 | 0.00 | 0.00 | 1 | 1009.4 |
| 20260505040305 | 73 | 24 | 4.3 | 11.3 | 0.00 | 0.00 | 0.00 | 1 | 1009.5 |
| 20260505040205 | 73 | 24 | 4.3 | 11.3 | 0.00 | 0.00 | 0.00 | 1 | 1009.5 |
| 20260505040105 | 73 | 19 | 4.3 | 9.6 | 0.00 | 0.00 | 0.00 | 1 | 1009.5 |
| 20260505040005 | 73 | 19 | 4.3 | 9.6 | 0.00 | 0.00 | 0.00 | 1 | 1009.5 |
| 20260505035905 | 73 | 18 | 4.3 | 9.6 | 0.00 | 0.00 | 0.00 | 1 | 1009.5 |
| 20260505035805 | 73 | 18 | 5.2 | 9.6 | 0.00 | 0.00 | 0.00 | 1 | 1009.5 |
| 20260505035705 | 73 | 17 | 5.2 | 12.2 | 0.00 | 0.00 | 0.00 | 1 | 1009.4 |
| 20260505035605 | 73 | 22 | 5.2 | 12.2 | 0.00 | 0.00 | 0.00 | 1 | 1009.5 |
| 20260505035505 | 73 | 20 | 5.2 | 12.2 | 0.00 | 0.00 | 0.00 | 1 | 1009.5 |
| 20260505035405 | 73 | 22 | 5.2 | 12.2 | 0.00 | 0.00 | 0.00 | 1 | 1009.5 |
| 20260505035305 | 73 | 24 | 5.2 | 12.2 | 0.00 | 0.00 | 0.00 | 1 | 1009.5 |
| 20260505035205 | 73 | 19 | 5.2 | 12.2 | 0.00 | 0.00 | 0.00 | 1 | 1009.4 |
| 20260505035126 | 73 | 21 | 5.2 | 12.2 | 0.00 | 0.00 | 0.00 | 1 | 1009.4 |
| 20260505035005 | 73 | 27 | 5.2 | 12.2 | 0.00 | 0.00 | 0.00 | 1 | 1009.4 |
| 20260505034926 | 73 | 26 | 5.2 | 12.2 | 0.00 | 0.00 | 0.00 | 1 | 1009.4 |
| 20260505034805 | 73 | 24 | 5.2 | 12.2 | 0.00 | 0.00 | 0.00 | 2 | 1009.5 |
| 20260505034705 | 73 | 21 | 4.3 | 12.2 | 0.00 | 0.00 | 0.00 | 3 | 1009.4 |
| 20260505034605 | 73 | 20 | 4.3 | 12.2 | 0.00 | 0.00 | 0.00 | 3 | 1009.4 |
| 20260505034505 | 73 | 19 | 4.3 | 12.2 | 0.00 | 0.00 | 0.00 | 4 | 1009.4 |
| 20260505034405 | 73 | 22 | 4.3 | 12.2 | 0.00 | 0.00 | 0.00 | 4 | 1009.4 |
| 20260505034326 | 73 | 19 | 4.3 | 12.2 | 0.00 | 0.00 | 0.00 | 4 | 1009.4 |
| 20260505034205 | 73 | 20 | 4.3 | 12.2 | 0.00 | 0.00 | 0.00 | 5 | 1009.4 |
| 20260505034126 | 73 | 20 | 4.3 | 12.2 | 0.00 | 0.00 | 0.00 | 5 | 1009.4 |
| 20260505034005 | 73 | 21 | 4.3 | 12.2 | 0.00 | 0.00 | 0.00 | 6 | 1009.4 |
| 20260505033905 | 73 | 23 | 4.3 | 12.2 | 0.00 | 0.00 | 0.00 | 7 | 1009.4 |
| 20260505033805 | 74 | 18 | 4.3 | 9.6 | 0.00 | 0.00 | 0.00 | 7 | 1009.4 |
| 20260505033705 | 74 | 22 | 4.3 | 9.6 | 0.00 | 0.00 | 0.00 | 8 | 1009.4 |
| 20260505033626 | 74 | 22 | 4.3 | 9.6 | 0.00 | 0.00 | 0.00 | 9 | 1009.4 |
| 20260505033505 | 74 | 22 | 4.3 | 9.6 | 0.00 | 0.00 | 0.00 | 9 | 1009.4 |
| 20260505033405 | 74 | 21 | 4.3 | 10.4 | 0.00 | 0.00 | 0.00 | 10 | 1009.4 |
| 20260505033326 | 74 | 22 | 5.2 | 10.4 | 0.00 | 0.00 | 0.00 | 10 | 1009.4 |
| 20260505033205 | 74 | 22 | 4.3 | 12.2 | 0.00 | 0.00 | 0.00 | 11 | 1009.4 |
| 20260505033105 | 74 | 22 | 5.2 | 12.2 | 0.00 | 0.00 | 0.00 | 11 | 1009.4 |
| 20260505033005 | 74 | 21 | 5.2 | 12.2 | 0.00 | 0.00 | 0.00 | 12 | 1009.4 |
| 20260505032905 | 74 | 20 | 5.2 | 12.2 | 0.00 | 0.00 | 0.00 | 13 | 1009.4 |
| 20260505032805 | 74 | 24 | 5.2 | 12.2 | 0.00 | 0.00 | 0.00 | 14 | 1009.4 |
| 20260505032705 | 74 | 23 | 5.2 | 12.2 | 0.00 | 0.00 | 0.00 | 14 | 1009.4 |
| 20260505032605 | 74 | 19 | 5.2 | 12.2 | 0.00 | 0.00 | 0.00 | 14 | 1009.4 |
| 20260505032526 | 74 | 21 | 5.2 | 12.2 | 0.00 | 0.00 | 0.00 | 14 | 1009.4 |
| 20260505032405 | 74 | 20 | 5.2 | 12.2 | 0.00 | 0.00 | 0.00 | 15 | 1009.4 |
| 20260505032305 | 74 | 20 | 4.3 | 12.2 | 0.00 | 0.00 | 0.00 | 16 | 1009.4 |
| 20260505032205 | 74 | 21 | 4.3 | 11.3 | 0.00 | 0.00 | 0.00 | 16 | 1009.3 |
| 20260505032105 | 74 | 19 | 4.3 | 11.3 | 0.00 | 0.00 | 0.00 | 16 | 1009.3 |
| 20260505032005 | 74 | 13 | 4.3 | 11.3 | 0.00 | 0.00 | 0.00 | 17 | 1009.3 |
| 20260505031905 | 74 | 9 | 4.3 | 8.7 | 0.00 | 0.00 | 0.00 | 17 | 1009.3 |
| 20260505031805 | 74 | 9 | 4.3 | 8.7 | 0.00 | 0.00 | 0.00 | 18 | 1009.4 |
| 20260505031705 | 74 | 11 | 3.5 | 8.7 | 0.00 | 0.00 | 0.00 | 18 | 1009.4 |
| 20260505031605 | 74 | 17 | 3.5 | 8.7 | 0.00 | 0.00 | 0.00 | 19 | 1009.4 |
| 20260505031505 | 74 | 14 | 3.5 | 8.7 | 0.00 | 0.00 | 0.00 | 19 | 1009.4 |
| 20260505031405 | 74 | 13 | 3.5 | 7.8 | 0.00 | 0.00 | 0.00 | 20 | 1009.4 |
| 20260505031305 | 74 | 13 | 3.5 | 7.8 | 0.00 | 0.00 | 0.00 | 20 | 1009.4 |
| 20260505031205 | 74 | 13 | 3.5 | 7.8 | 0.00 | 0.00 | 0.00 | 21 | 1009.4 |
| 20260505031126 | 74 | 12 | 3.5 | 7.8 | 0.00 | 0.00 | 0.00 | 21 | 1009.4 |
| 20260505031005 | 74 | 19 | 3.5 | 7.8 | 0.00 | 0.00 | 0.00 | 22 | 1009.4 |
| 20260505030905 | 74 | 25 | 3.5 | 7.8 | 0.00 | 0.00 | 0.00 | 22 | 1009.4 |
| 20260505030805 | 74 | 26 | 3.5 | 7.8 | 0.00 | 0.00 | 0.00 | 23 | 1009.4 |
| 20260505030705 | 74 | 21 | 4.3 | 7.8 | 0.00 | 0.00 | 0.00 | 23 | 1009.4 |
| 20260505030626 | 74 | 19 | 4.3 | 7.8 | 0.00 | 0.00 | 0.00 | 23 | 1009.4 |
| 20260505030505 | 74 | 18 | 3.5 | 7.8 | 0.00 | 0.00 | 0.00 | 24 | 1009.3 |
| 20260505030426 | 74 | 16 | 3.5 | 7.8 | 0.00 | 0.00 | 0.00 | 24 | 1009.3 |
| 20260505030305 | 74 | 12 | 3.5 | 7.8 | 0.00 | 0.00 | 0.00 | 24 | 1009.3 |
| 20260505030205 | 74 | 16 | 3.5 | 7.8 | 0.00 | 0.00 | 0.00 | 25 | 1009.3 |
| 20260505030105 | 74 | 18 | 3.5 | 7.8 | 0.00 | 0.00 | 0.00 | 25 | 1009.3 |
| 20260505030005 | 74 | 18 | 3.5 | 7.8 | 0.00 | 0.00 | 0.00 | 26 | 1009.4 |
| 20260505025904 | 75 | 21 | 3.5 | 7.8 | 0.00 | 0.00 | 0.00 | 26 | 1009.4 |
| 20260505025805 | 75 | 15 | 3.5 | 7.8 | 0.00 | 0.00 | 0.00 | 27 | 1009.4 |
| 20260505025705 | 75 | 11 | 3.5 | 7.8 | 0.00 | 0.00 | 0.00 | 27 | 1009.4 |
| 20260505025605 | 75 | 11 | 3.5 | 7.8 | 0.00 | 0.00 | 0.00 | 27 | 1009.3 |
| 20260505025526 | 75 | 15 | 3.5 | 7.8 | 0.00 | 0.00 | 0.00 | 28 | 1009.3 |
| 20260505025405 | 75 | 18 | 3.5 | 10.4 | 0.00 | 0.00 | 0.00 | 28 | 1009.3 |
| 20260505025305 | 75 | 22 | 3.5 | 10.4 | 0.00 | 0.00 | 0.00 | 29 | 1009.3 |
| 20260505025205 | 75 | 20 | 3.5 | 10.4 | 0.00 | 0.00 | 0.00 | 29 | 1009.3 |
| 20260505025105 | 75 | 19 | 3.5 | 10.4 | 0.00 | 0.00 | 0.00 | 29 | 1009.3 |
| 20260505025005 | 75 | 17 | 3.5 | 10.4 | 0.00 | 0.00 | 0.00 | 29 | 1009.3 |
| 20260505024905 | 75 | 13 | 3.5 | 10.4 | 0.00 | 0.00 | 0.00 | 30 | 1009.3 |
| 20260505024805 | 75 | 18 | 3.5 | 10.4 | 0.00 | 0.00 | 0.00 | 30 | 1009.3 |
| 20260505024705 | 75 | 25 | 2.6 | 10.4 | 0.00 | 0.00 | 0.00 | 31 | 1009.3 |
| 20260505024605 | 75 | 25 | 2.6 | 10.4 | 0.00 | 0.00 | 0.00 | 31 | 1009.3 |
| 20260505024505 | 75 | 26 | 2.6 | 7.8 | 0.00 | 0.00 | 0.00 | 32 | 1009.3 |
| 20260505024426 | 75 | 22 | 2.6 | 7.8 | 0.00 | 0.00 | 0.00 | 32 | 1009.3 |
| 20260505024326 | 75 | 18 | 2.6 | 7.8 | 0.00 | 0.00 | 0.00 | 32 | 1009.3 |
| 20260505024205 | 75 | 11 | 2.6 | 7.8 | 0.00 | 0.00 | 0.00 | 33 | 1009.3 |
| 20260505024105 | 75 | 11 | 2.6 | 7.8 | 0.00 | 0.00 | 0.00 | 34 | 1009.3 |
| 20260505024026 | 75 | 13 | 2.6 | 7.8 | 0.00 | 0.00 | 0.00 | 34 | 1009.3 |
| 20260505023905 | 75 | 15 | 2.6 | 7.8 | 0.00 | 0.00 | 0.00 | 34 | 1009.3 |
| 20260505023805 | 75 | 15 | 3.5 | 7.8 | 0.00 | 0.00 | 0.00 | 35 | 1009.3 |
| 20260505023705 | 75 | 15 | 3.5 | 7.8 | 0.00 | 0.00 | 0.00 | 35 | 1009.2 |
| 20260505023605 | 75 | 15 | 3.5 | 7.8 | 0.00 | 0.00 | 0.00 | 36 | 1009.2 |
| 20260505023505 | 75 | 14 | 3.5 | 7.8 | 0.00 | 0.00 | 0.00 | 37 | 1009.2 |
| 20260505023405 | 75 | 17 | 3.5 | 7.8 | 0.00 | 0.00 | 0.00 | 37 | 1009.2 |
| 20260505023305 | 75 | 23 | 3.5 | 7.8 | 0.00 | 0.00 | 0.00 | 37 | 1009.2 |
| 20260505023205 | 75 | 29 | 3.5 | 7.8 | 0.00 | 0.00 | 0.00 | 38 | 1009.2 |
| 20260505023105 | 75 | 32 | 3.5 | 7.8 | 0.00 | 0.00 | 0.00 | 38 | 1009.1 |
| 20260505023004 | 75 | 31 | 3.5 | 7.8 | 0.00 | 0.00 | 0.00 | 39 | 1009.1 |
| 20260505022926 | 75 | 30 | 3.5 | 8.7 | 0.00 | 0.00 | 0.00 | 39 | 1009.1 |
| 20260505022805 | 75 | 29 | 3.5 | 8.7 | 0.00 | 0.00 | 0.00 | 39 | 1009.1 |
| 20260505022726 | 75 | 29 | 3.5 | 8.7 | 0.00 | 0.00 | 0.00 | 39 | 1009.1 |
| 20260505022626 | 75 | 29 | 3.5 | 8.7 | 0.00 | 0.00 | 0.00 | 40 | 1009.2 |
| 20260505022505 | 75 | 27 | 3.5 | 8.7 | 0.00 | 0.00 | 0.00 | 40 | 1009.2 |
| 20260505022405 | 75 | 26 | 3.5 | 8.7 | 0.00 | 0.00 | 0.00 | 41 | 1009.2 |
| 20260505022305 | 75 | 22 | 4.3 | 8.7 | 0.00 | 0.00 | 0.00 | 41 | 1009.2 |
| 20260505022205 | 75 | 20 | 4.3 | 8.7 | 0.00 | 0.00 | 0.00 | 41 | 1009.1 |
| 20260505022105 | 75 | 14 | 4.3 | 8.7 | 0.00 | 0.00 | 0.00 | 42 | 1009.1 |
| 20260505022005 | 75 | 11 | 4.3 | 8.7 | 0.00 | 0.00 | 0.00 | 42 | 1009.2 |
| 20260505021926 | 75 | 11 | 4.3 | 7.8 | 0.00 | 0.00 | 0.00 | 43 | 1009.2 |
| 20260505021805 | 75 | 14 | 3.5 | 7.8 | 0.00 | 0.00 | 0.00 | 44 | 1009.1 |
| 20260505021726 | 75 | 15 | 3.5 | 7.8 | 0.00 | 0.00 | 0.00 | 44 | 1009.1 |
| 20260505021605 | 75 | 14 | 3.5 | 7.8 | 0.00 | 0.00 | 0.00 | 45 | 1009.0 |
| 20260505021505 | 75 | 15 | 3.5 | 7.8 | 0.00 | 0.00 | 0.00 | 45 | 1009.0 |
| 20260505021405 | 76 | 17 | 3.5 | 7.8 | 0.00 | 0.00 | 0.00 | 45 | 1009.0 |
| 20260505021305 | 76 | 18 | 3.5 | 8.7 | 0.00 | 0.00 | 0.00 | 46 | 1009.0 |
| 20260505021205 | 76 | 20 | 3.5 | 8.7 | 0.00 | 0.00 | 0.00 | 47 | 1009.1 |
| 20260505021105 | 76 | 22 | 3.5 | 8.7 | 0.00 | 0.00 | 0.00 | 47 | 1009.1 |
| 20260505021005 | 76 | 24 | 3.5 | 8.7 | 0.00 | 0.00 | 0.00 | 48 | 1009.1 |
| 20260505020905 | 76 | 21 | 3.5 | 8.7 | 0.00 | 0.00 | 0.00 | 48 | 1009.1 |
| 20260505020805 | 76 | 19 | 4.3 | 8.7 | 0.00 | 0.00 | 0.00 | 48 | 1009.1 |
| 20260505020705 | 76 | 13 | 3.5 | 8.7 | 0.00 | 0.00 | 0.00 | 49 | 1009.2 |
| 20260505020605 | 76 | 11 | 3.5 | 8.7 | 0.00 | 0.00 | 0.00 | 50 | 1009.1 |
| 20260505020505 | 76 | 6 | 3.5 | 8.7 | 0.00 | 0.00 | 0.00 | 50 | 1009.1 |
| 20260505020405 | 76 | 6 | 3.5 | 8.7 | 0.00 | 0.00 | 0.00 | 50 | 1009.1 |
| 20260505020326 | 76 | 8 | 3.5 | 8.7 | 0.00 | 0.00 | 0.00 | 51 | 1009.1 |
| 20260505020205 | 76 | 360 | 3.5 | 8.7 | 0.00 | 0.00 | 0.00 | 51 | 1009.1 |
| 20260505020126 | 76 | 360 | 3.5 | 8.7 | 0.00 | 0.00 | 0.00 | 51 | 1009.1 |
| 20260505020005 | 76 | 354 | 2.6 | 8.7 | 0.00 | 0.00 | 0.00 | 52 | 1009.1 |
| 20260505015905 | 76 | 346 | 2.6 | 8.7 | 0.00 | 0.00 | 0.00 | 52 | 1009.1 |
| 20260505015805 | 76 | 338 | 2.6 | 8.7 | 0.00 | 0.00 | 0.00 | 53 | 1009.0 |
| 20260505015705 | 76 | 337 | 2.6 | 6.1 | 0.00 | 0.00 | 0.00 | 53 | 1009.1 |
| 20260505015605 | 76 | 336 | 2.6 | 6.1 | 0.00 | 0.00 | 0.00 | 53 | 1009.1 |
| 20260505015526 | 76 | 337 | 2.6 | 6.1 | 0.00 | 0.00 | 0.00 | 54 | 1009.1 |
| 20260505015405 | 76 | 341 | 2.6 | 6.1 | 0.00 | 0.00 | 0.00 | 54 | 1009.1 |
| 20260505015326 | 76 | 341 | 2.6 | 6.1 | 0.00 | 0.00 | 0.00 | 54 | 1009.0 |
| 20260505015226 | 76 | 342 | 2.6 | 6.1 | 0.00 | 0.00 | 0.00 | 55 | 1009.0 |
| 20260505015105 | 76 | 341 | 2.6 | 6.1 | 0.00 | 0.00 | 0.00 | 55 | 1009.1 |
| 20260505015005 | 76 | 341 | 2.6 | 6.1 | 0.00 | 0.00 | 0.00 | 55 | 1009.0 |
| 20260505014905 | 76 | 349 | 3.5 | 6.1 | 0.00 | 0.00 | 0.00 | 55 | 1009.0 |
| 20260505014805 | 76 | 358 | 3.5 | 6.1 | 0.00 | 0.00 | 0.00 | 55 | 1009.0 |
| 20260505014726 | 76 | 5 | 3.5 | 6.1 | 0.00 | 0.00 | 0.00 | 56 | 1009.0 |
| 20260505014605 | 76 | 12 | 3.5 | 6.1 | 0.00 | 0.00 | 0.00 | 56 | 1009.0 |
| 20260505014505 | 76 | 14 | 3.5 | 6.1 | 0.00 | 0.00 | 0.00 | 56 | 1009.0 |
| 20260505014405 | 76 | 8 | 2.6 | 6.1 | 0.00 | 0.00 | 0.00 | 56 | 1009.0 |
| 20260505014305 | 76 | 359 | 2.6 | 6.1 | 0.00 | 0.00 | 0.00 | 56 | 1009.0 |
| 20260505014226 | 76 | 356 | 2.6 | 6.1 | 0.00 | 0.00 | 0.00 | 56 | 1009.1 |
| 20260505014126 | 76 | 357 | 2.6 | 6.1 | 0.00 | 0.00 | 0.00 | 57 | 1009.1 |
| 20260505014026 | 76 | 4 | 2.6 | 6.1 | 0.00 | 0.00 | 0.00 | 57 | 1009.0 |
| 20260505013905 | 77 | 12 | 2.6 | 7.8 | 0.00 | 0.00 | 0.00 | 57 | 1009.1 |
| 20260505013805 | 77 | 11 | 2.6 | 7.8 | 0.00 | 0.00 | 0.00 | 57 | 1009.0 |
| 20260505013705 | 77 | 5 | 2.6 | 7.8 | 0.00 | 0.00 | 0.00 | 57 | 1009.0 |
| 20260505013605 | 77 | 1 | 2.6 | 7.8 | 0.00 | 0.00 | 0.00 | 57 | 1009.1 |
| 20260505013505 | 77 | 2 | 2.6 | 7.8 | 0.00 | 0.00 | 0.00 | 58 | 1009.0 |
| 20260505013405 | 77 | 9 | 3.5 | 7.8 | 0.00 | 0.00 | 0.00 | 58 | 1009.0 |
| 20260505013326 | 77 | 15 | 3.5 | 7.8 | 0.00 | 0.00 | 0.00 | 58 | 1009.0 |
| 20260505013205 | 77 | 23 | 3.5 | 7.8 | 0.00 | 0.00 | 0.00 | 58 | 1009.0 |
| 20260505013105 | 77 | 23 | 3.5 | 7.8 | 0.00 | 0.00 | 0.00 | 58 | 1009.0 |
| 20260505013004 | 77 | 21 | 3.5 | 7.8 | 0.00 | 0.00 | 0.00 | 58 | 1008.9 |
| 20260505012905 | 77 | 24 | 3.5 | 7.8 | 0.00 | 0.00 | 0.00 | 58 | 1009.0 |
| 20260505012826 | 77 | 23 | 3.5 | 7.8 | 0.00 | 0.00 | 0.00 | 58 | 1008.9 |
| 20260505012705 | 77 | 23 | 3.5 | 8.7 | 0.00 | 0.00 | 0.00 | 58 | 1009.0 |
| 20260505012626 | 77 | 24 | 4.3 | 8.7 | 0.00 | 0.00 | 0.00 | 58 | 1009.0 |
| 20260505012505 | 77 | 24 | 3.5 | 8.7 | 0.00 | 0.00 | 0.00 | 59 | 1009.0 |
| 20260505012426 | 77 | 24 | 4.3 | 8.7 | 0.00 | 0.00 | 0.00 | 59 | 1009.0 |
| 20260505012305 | 77 | 24 | 4.3 | 8.7 | 0.00 | 0.00 | 0.00 | 59 | 1009.0 |
| 20260505012205 | 77 | 21 | 3.5 | 8.7 | 0.00 | 0.00 | 0.00 | 59 | 1008.9 |
| 20260505012105 | 77 | 20 | 3.5 | 8.7 | 0.00 | 0.00 | 0.00 | 59 | 1008.9 |
| 20260505012005 | 77 | 20 | 4.3 | 8.7 | 0.00 | 0.00 | 0.00 | 59 | 1008.8 |
| 20260505011905 | 77 | 16 | 3.5 | 8.7 | 0.00 | 0.00 | 0.00 | 59 | 1008.9 |
| 20260505011805 | 77 | 17 | 3.5 | 8.7 | 0.00 | 0.00 | 0.00 | 59 | 1008.8 |
| 20260505011705 | 77 | 21 | 4.3 | 7.8 | 0.00 | 0.00 | 0.00 | 59 | 1008.9 |
| 20260505011605 | 77 | 20 | 4.3 | 7.8 | 0.00 | 0.00 | 0.00 | 59 | 1008.8 |
| 20260505011505 | 77 | 22 | 4.3 | 7.8 | 0.00 | 0.00 | 0.00 | 60 | 1008.8 |
| 20260505011405 | 77 | 23 | 4.3 | 7.8 | 0.00 | 0.00 | 0.00 | 60 | 1008.8 |
| 20260505011305 | 78 | 20 | 4.3 | 7.8 | 0.00 | 0.00 | 0.00 | 60 | 1008.8 |
| 20260505011204 | 78 | 22 | 4.3 | 7.8 | 0.00 | 0.00 | 0.00 | 60 | 1008.8 |
| 20260505011105 | 78 | 24 | 4.3 | 7.8 | 0.00 | 0.00 | 0.00 | 60 | 1008.8 |
| 20260505011026 | 78 | 24 | 4.3 | 7.8 | 0.00 | 0.00 | 0.00 | 60 | 1008.8 |
| 20260505010926 | 78 | 27 | 4.3 | 7.8 | 0.00 | 0.00 | 0.00 | 60 | 1008.8 |
| 20260505010805 | 78 | 28 | 4.3 | 7.8 | 0.00 | 0.00 | 0.00 | 60 | 1008.8 |
| 20260505010726 | 78 | 28 | 4.3 | 7.8 | 0.00 | 0.00 | 0.00 | 60 | 1008.8 |
| 20260505010626 | 78 | 30 | 4.3 | 7.8 | 0.00 | 0.00 | 0.00 | 60 | 1008.8 |
| 20260505010505 | 78 | 30 | 4.3 | 8.7 | 0.00 | 0.00 | 0.00 | 60 | 1008.8 |
| 20260505010405 | 78 | 30 | 4.3 | 8.7 | 0.00 | 0.00 | 0.00 | 60 | 1008.8 |
| 20260505010305 | 78 | 33 | 4.3 | 9.6 | 0.00 | 0.00 | 0.00 | 60 | 1008.8 |
| 20260505010226 | 78 | 34 | 4.3 | 9.6 | 0.00 | 0.00 | 0.00 | 60 | 1008.7 |
| 20260505010105 | 78 | 34 | 4.3 | 9.6 | 0.00 | 0.00 | 0.00 | 60 | 1008.8 |
| 20260505010005 | 78 | 35 | 4.3 | 9.6 | 0.00 | 0.00 | 0.00 | 60 | 1008.7 |
| 20260505005905 | 78 | 35 | 4.3 | 9.6 | 0.00 | 0.00 | 0.00 | 61 | 1008.8 |
| 20260505005826 | 78 | 34 | 4.3 | 9.6 | 0.00 | 0.00 | 0.00 | 61 | 1008.8 |
| 20260505005705 | 78 | 31 | 4.3 | 9.6 | 0.00 | 0.00 | 0.00 | 61 | 1008.8 |
| 20260505005605 | 78 | 31 | 4.3 | 9.6 | 0.00 | 0.00 | 0.00 | 61 | 1008.8 |
| 20260505005504 | 78 | 34 | 4.3 | 9.6 | 0.00 | 0.00 | 0.00 | 61 | 1008.8 |
| 20260505005405 | 78 | 33 | 4.3 | 9.6 | 0.00 | 0.00 | 0.00 | 61 | 1008.8 |
| 20260505005305 | 78 | 35 | 4.3 | 9.6 | 0.00 | 0.00 | 0.00 | 61 | 1008.8 |
| 20260505005205 | 79 | 34 | 4.3 | 11.3 | 0.00 | 0.00 | 0.00 | 61 | 1008.9 |
| 20260505005105 | 79 | 35 | 4.3 | 11.3 | 0.00 | 0.00 | 0.00 | 61 | 1008.8 |
| 20260505005005 | 79 | 35 | 5.2 | 11.3 | 0.00 | 0.00 | 0.00 | 61 | 1008.8 |
| 20260505004905 | 79 | 33 | 5.2 | 11.3 | 0.00 | 0.00 | 0.00 | 61 | 1008.8 |
| 20260505004805 | 79 | 35 | 5.2 | 11.3 | 0.00 | 0.00 | 0.00 | 61 | 1008.8 |
| 20260505004705 | 79 | 38 | 5.2 | 11.3 | 0.00 | 0.00 | 0.00 | 60 | 1008.8 |
| 20260505004605 | 79 | 37 | 5.2 | 11.3 | 0.00 | 0.00 | 0.00 | 60 | 1008.7 |
| 20260505004526 | 79 | 39 | 5.2 | 11.3 | 0.00 | 0.00 | 0.00 | 60 | 1008.7 |
| 20260505004405 | 79 | 37 | 5.2 | 11.3 | 0.00 | 0.00 | 0.00 | 60 | 1008.7 |
| 20260505004305 | 79 | 37 | 5.2 | 11.3 | 0.00 | 0.00 | 0.00 | 60 | 1008.7 |
| 20260505004205 | 79 | 37 | 5.2 | 11.3 | 0.00 | 0.00 | 0.00 | 60 | 1008.7 |
| 20260505004105 | 79 | 35 | 5.2 | 10.4 | 0.00 | 0.00 | 0.00 | 60 | 1008.7 |
| 20260505004005 | 79 | 34 | 5.2 | 10.4 | 0.00 | 0.00 | 0.00 | 60 | 1008.7 |
| 20260505003905 | 80 | 33 | 5.2 | 10.4 | 0.00 | 0.00 | 0.00 | 60 | 1008.7 |
| 20260505003805 | 80 | 34 | 5.2 | 10.4 | 0.00 | 0.00 | 0.00 | 60 | 1008.7 |
| 20260505003705 | 80 | 32 | 5.2 | 10.4 | 0.00 | 0.00 | 0.00 | 60 | 1008.7 |
| 20260505003626 | 80 | 30 | 5.2 | 10.4 | 0.00 | 0.00 | 0.00 | 60 | 1008.7 |
| 20260505003505 | 80 | 27 | 5.2 | 10.4 | 0.00 | 0.00 | 0.00 | 60 | 1008.6 |
| 20260505003426 | 80 | 27 | 5.2 | 10.4 | 0.00 | 0.00 | 0.00 | 60 | 1008.6 |
| 20260505003305 | 80 | 22 | 5.2 | 12.2 | 0.00 | 0.00 | 0.00 | 60 | 1008.6 |
| 20260505003205 | 80 | 23 | 5.2 | 13.9 | 0.00 | 0.00 | 0.00 | 60 | 1008.6 |
| 20260505003105 | 80 | 24 | 5.2 | 13.9 | 0.00 | 0.00 | 0.00 | 60 | 1008.6 |
| 20260505003005 | 80 | 23 | 5.2 | 13.9 | 0.00 | 0.00 | 0.00 | 60 | 1008.6 |
| 20260505002905 | 80 | 23 | 5.2 | 13.9 | 0.00 | 0.00 | 0.00 | 60 | 1008.6 |
| 20260505002805 | 80 | 24 | 5.2 | 13.9 | 0.00 | 0.00 | 0.00 | 60 | 1008.6 |
| 20260505002726 | 80 | 23 | 6.1 | 13.9 | 0.00 | 0.00 | 0.00 | 59 | 1008.6 |
| 20260505002605 | 80 | 25 | 6.1 | 13.9 | 0.00 | 0.00 | 0.00 | 59 | 1008.6 |
| 20260505002526 | 80 | 25 | 6.1 | 13.9 | 0.00 | 0.00 | 0.00 | 59 | 1008.6 |
| 20260505002405 | 80 | 27 | 6.1 | 13.9 | 0.00 | 0.00 | 0.00 | 59 | 1008.6 |
| 20260505002305 | 80 | 26 | 6.1 | 13.9 | 0.00 | 0.00 | 0.00 | 59 | 1008.6 |
| 20260505002205 | 80 | 25 | 6.1 | 13.9 | 0.00 | 0.00 | 0.00 | 59 | 1008.5 |
| 20260505002126 | 80 | 25 | 6.1 | 13.9 | 0.00 | 0.00 | 0.00 | 59 | 1008.5 |
| 20260505002005 | 80 | 25 | 6.1 | 13.9 | 0.00 | 0.00 | 0.00 | 59 | 1008.5 |
| 20260505001905 | 80 | 26 | 6.1 | 13.9 | 0.00 | 0.00 | 0.00 | 59 | 1008.5 |
| 20260505001826 | 80 | 25 | 6.1 | 13.9 | 0.00 | 0.00 | 0.00 | 59 | 1008.5 |
| 20260505001705 | 80 | 25 | 6.1 | 13.9 | 0.00 | 0.00 | 0.00 | 59 | 1008.5 |
| 20260505001605 | 80 | 23 | 6.1 | 13.9 | 0.00 | 0.00 | 0.00 | 59 | 1008.5 |
| 20260505001505 | 80 | 22 | 6.1 | 13.9 | 0.00 | 0.00 | 0.00 | 59 | 1008.6 |
| 20260505001405 | 80 | 23 | 6.1 | 12.2 | 0.00 | 0.00 | 0.00 | 59 | 1008.5 |
| 20260505001305 | 80 | 27 | 6.1 | 12.2 | 0.00 | 0.00 | 0.00 | 59 | 1008.5 |
| 20260505001205 | 80 | 29 | 6.1 | 12.2 | 0.00 | 0.00 | 0.00 | 59 | 1008.6 |
| 20260505001105 | 80 | 30 | 6.1 | 12.2 | 0.00 | 0.00 | 0.00 | 59 | 1008.6 |
| 20260505001005 | 80 | 30 | 6.1 | 12.2 | 0.00 | 0.00 | 0.00 | 59 | 1008.6 |
| 20260505000905 | 80 | 32 | 6.1 | 13.0 | 0.00 | 0.00 | 0.00 | 59 | 1008.7 |
| 20260505000805 | 80 | 34 | 6.1 | 13.0 | 0.00 | 0.00 | 0.00 | 59 | 1008.7 |
| 20260505000726 | 80 | 34 | 7.0 | 13.0 | 0.00 | 0.00 | 0.00 | 59 | 1008.7 |
| 20260505000605 | 80 | 36 | 7.0 | 13.9 | 0.00 | 0.00 | 0.00 | 59 | 1008.7 |
| 20260505000505 | 80 | 36 | 7.0 | 16.5 | 0.00 | 0.00 | 0.00 | 59 | 1008.7 |
| 20260505000406 | 80 | 36 | 7.0 | 16.5 | 0.00 | 0.00 | 0.00 | 59 | 1008.8 |
| 20260505000305 | 80 | 35 | 7.8 | 16.5 | 0.00 | 0.00 | 0.00 | 59 | 1008.8 |
| 20260505000204 | 80 | 33 | 7.8 | 16.5 | 0.00 | 0.00 | 0.00 | 59 | 1008.8 |
| 20260505000105 | 80 | 33 | 7.8 | 16.5 | 0.00 | 0.00 | 0.00 | 59 | 1008.8 |
| 20260505000005 | 80 | 33 | 7.8 | 16.5 | 0.00 | 0.00 | 0.00 | 59 | 1008.9 |
| 20260504235905 | 80 | 34 | 7.8 | 16.5 | 0.00 | 0.00 | 0.00 | 59 | 1008.9 |
| 20260504235805 | 80 | 34 | 7.8 | 16.5 | 0.00 | 0.00 | 0.00 | 59 | 1008.8 |
| 20260504235726 | 80 | 34 | 7.8 | 16.5 | 0.00 | 0.00 | 0.00 | 59 | 1008.8 |
| 20260504235626 | 80 | 33 | 7.8 | 16.5 | 0.00 | 0.00 | 0.00 | 59 | 1008.8 |
| 20260504235505 | 80 | 31 | 7.8 | 14.8 | 0.00 | 0.00 | 0.00 | 58 | 1008.8 |
| 20260504235404 | 80 | 31 | 7.0 | 13.0 | 0.00 | 0.00 | 0.00 | 58 | 1008.8 |
| 20260504235305 | 81 | 30 | 7.0 | 13.0 | 0.00 | 0.00 | 0.00 | 58 | 1008.8 |
| 20260504235205 | 81 | 34 | 7.0 | 13.0 | 0.00 | 0.00 | 0.00 | 59 | 1008.9 |
| 20260504235105 | 81 | 36 | 7.0 | 13.0 | 0.00 | 0.00 | 0.00 | 59 | 1008.9 |
| 20260504235005 | 81 | 35 | 7.0 | 13.0 | 0.00 | 0.00 | 0.00 | 59 | 1009.0 |
| 20260504234905 | 81 | 33 | 7.0 | 13.0 | 0.00 | 0.00 | 0.00 | 58 | 1009.0 |
| 20260504234805 | 81 | 33 | 7.0 | 13.0 | 0.00 | 0.00 | 0.00 | 58 | 1009.1 |
| 20260504234705 | 81 | 34 | 7.0 | 13.0 | 0.00 | 0.00 | 0.00 | 58 | 1009.1 |
| 20260504234605 | 81 | 35 | 7.0 | 13.0 | 0.00 | 0.00 | 0.00 | 58 | 1009.1 |
| 20260504234505 | 81 | 36 | 7.0 | 13.0 | 0.00 | 0.00 | 0.00 | 58 | 1009.1 |
| 20260504234405 | 81 | 37 | 7.0 | 13.0 | 0.00 | 0.00 | 0.00 | 58 | 1009.1 |
| 20260504234305 | 81 | 37 | 7.0 | 15.6 | 0.00 | 0.00 | 0.00 | 58 | 1009.1 |
| 20260504234205 | 81 | 36 | 7.8 | 15.6 | 0.00 | 0.00 | 0.00 | 58 | 1009.1 |
| 20260504234104 | 81 | 35 | 7.8 | 15.6 | 0.00 | 0.00 | 0.00 | 58 | 1009.2 |
| 20260504234005 | 81 | 36 | 7.8 | 15.6 | 0.00 | 0.00 | 0.00 | 58 | 1009.2 |
| 20260504233905 | 81 | 38 | 7.8 | 15.6 | 0.00 | 0.00 | 0.00 | 58 | 1009.1 |
| 20260504233805 | 81 | 37 | 7.8 | 15.6 | 0.00 | 0.00 | 0.00 | 58 | 1009.2 |
| 20260504233705 | 81 | 34 | 8.7 | 15.6 | 0.00 | 0.00 | 0.00 | 58 | 1009.1 |
| 20260504233605 | 81 | 34 | 8.7 | 15.6 | 0.00 | 0.00 | 0.00 | 58 | 1009.1 |
| 20260504233505 | 81 | 35 | 8.7 | 15.6 | 0.00 | 0.00 | 0.00 | 58 | 1009.1 |
| 20260504233405 | 81 | 34 | 8.7 | 15.6 | 0.00 | 0.00 | 0.00 | 58 | 1009.2 |
| 20260504233305 | 81 | 33 | 8.7 | 15.6 | 0.00 | 0.00 | 0.00 | 58 | 1009.2 |
| 20260504233226 | 81 | 32 | 8.7 | 15.6 | 0.00 | 0.00 | 0.00 | 57 | 1009.2 |
| 20260504233105 | 81 | 32 | 7.8 | 15.6 | 0.00 | 0.00 | 0.00 | 58 | 1009.2 |
| 20260504233026 | 81 | 32 | 7.8 | 15.6 | 0.00 | 0.00 | 0.00 | 58 | 1009.2 |
| 20260504232905 | 81 | 32 | 7.8 | 15.6 | 0.00 | 0.00 | 0.00 | 57 | 1009.2 |
| 20260504232805 | 81 | 34 | 7.8 | 15.6 | 0.00 | 0.00 | 0.00 | 57 | 1009.2 |
| 20260504232705 | 81 | 36 | 7.8 | 15.6 | 0.00 | 0.00 | 0.00 | 57 | 1009.2 |
| 20260504232605 | 81 | 35 | 7.8 | 15.6 | 0.00 | 0.00 | 0.00 | 57 | 1009.3 |
| 20260504232505 | 81 | 36 | 7.0 | 15.6 | 0.00 | 0.00 | 0.00 | 57 | 1009.3 |
| 20260504232426 | 81 | 38 | 7.0 | 15.6 | 0.00 | 0.00 | 0.00 | 57 | 1009.3 |
| 20260504232305 | 81 | 38 | 7.0 | 13.0 | 0.00 | 0.00 | 0.00 | 57 | 1009.3 |
| 20260504232226 | 82 | 39 | 7.0 | 14.8 | 0.00 | 0.00 | 0.00 | 57 | 1009.3 |
| 20260504232105 | 82 | 39 | 7.0 | 14.8 | 0.00 | 0.00 | 0.00 | 57 | 1009.3 |
| 20260504232005 | 82 | 37 | 7.8 | 14.8 | 0.00 | 0.00 | 0.00 | 58 | 1009.3 |
| 20260504231926 | 82 | 36 | 7.8 | 14.8 | 0.00 | 0.00 | 0.00 | 58 | 1009.4 |
| 20260504231826 | 82 | 35 | 7.0 | 14.8 | 0.00 | 0.00 | 0.00 | 58 | 1009.3 |
| 20260504231705 | 82 | 32 | 7.0 | 14.8 | 0.00 | 0.00 | 0.00 | 58 | 1009.3 |
| 20260504231605 | 82 | 30 | 7.8 | 14.8 | 0.00 | 0.00 | 0.00 | 57 | 1009.3 |
| 20260504231504 | 82 | 28 | 7.0 | 14.8 | 0.00 | 0.00 | 0.00 | 57 | 1009.2 |
| 20260504231405 | 82 | 27 | 7.8 | 14.8 | 0.00 | 0.00 | 0.00 | 57 | 1009.2 |
| 20260504231305 | 82 | 29 | 7.8 | 14.8 | 0.00 | 0.00 | 0.00 | 57 | 1009.2 |
| 20260504231226 | 82 | 32 | 7.8 | 13.9 | 0.00 | 0.00 | 0.00 | 57 | 1009.3 |
| 20260504231105 | 82 | 32 | 8.7 | 15.6 | 0.00 | 0.00 | 0.00 | 57 | 1009.2 |
| 20260504231004 | 82 | 31 | 8.7 | 15.6 | 0.00 | 0.00 | 0.00 | 57 | 1009.2 |
| 20260504230905 | 82 | 33 | 8.7 | 16.5 | 0.00 | 0.00 | 0.00 | 57 | 1009.3 |
| 20260504230805 | 82 | 33 | 8.7 | 16.5 | 0.00 | 0.00 | 0.00 | 57 | 1009.3 |
| 20260504230705 | 82 | 33 | 8.7 | 16.5 | 0.00 | 0.00 | 0.00 | 57 | 1009.3 |
| 20260504230605 | 82 | 35 | 7.8 | 16.5 | 0.00 | 0.00 | 0.00 | 57 | 1009.3 |
| 20260504230505 | 82 | 35 | 7.8 | 16.5 | 0.00 | 0.00 | 0.00 | 57 | 1009.3 |
| 20260504230405 | 82 | 36 | 7.8 | 16.5 | 0.00 | 0.00 | 0.00 | 57 | 1009.4 |
| 20260504230305 | 82 | 36 | 7.0 | 16.5 | 0.00 | 0.00 | 0.00 | 57 | 1009.3 |
| 20260504230226 | 82 | 33 | 6.1 | 16.5 | 0.00 | 0.00 | 0.00 | 57 | 1009.4 |
| 20260504230105 | 82 | 33 | 6.1 | 16.5 | 0.00 | 0.00 | 0.00 | 57 | 1009.5 |
| 20260504230005 | 82 | 33 | 6.1 | 16.5 | 0.00 | 0.00 | 0.00 | 57 | 1009.5 |
| 20260504225905 | 82 | 31 | 7.0 | 16.5 | 0.00 | 0.00 | 0.00 | 57 | 1009.5 |
| 20260504225805 | 82 | 29 | 7.0 | 16.5 | 0.00 | 0.00 | 0.00 | 58 | 1009.4 |
| 20260504225705 | 82 | 29 | 7.0 | 16.5 | 0.00 | 0.00 | 0.00 | 58 | 1009.5 |
| 20260504225604 | 82 | 26 | 7.0 | 16.5 | 0.00 | 0.00 | 0.00 | 58 | 1009.5 |
| 20260504225504 | 82 | 26 | 7.0 | 16.5 | 0.00 | 0.00 | 0.00 | 57 | 1009.5 |
| 20260504225405 | 82 | 25 | 7.0 | 16.5 | 0.00 | 0.00 | 0.00 | 57 | 1009.5 |
| 20260504225305 | 82 | 23 | 7.0 | 16.5 | 0.00 | 0.00 | 0.00 | 57 | 1009.6 |
| 20260504225226 | 82 | 23 | 7.0 | 16.5 | 0.00 | 0.00 | 0.00 | 57 | 1009.5 |
| 20260504225105 | 82 | 23 | 7.0 | 16.5 | 0.00 | 0.00 | 0.00 | 57 | 1009.6 |
| 20260504225004 | 82 | 24 | 7.0 | 16.5 | 0.00 | 0.00 | 0.00 | 57 | 1009.6 |
| 20260504224905 | 82 | 23 | 6.1 | 14.8 | 0.00 | 0.00 | 0.00 | 57 | 1009.6 |
| 20260504224805 | 82 | 24 | 6.1 | 14.8 | 0.00 | 0.00 | 0.00 | 56 | 1009.6 |
| 20260504224726 | 82 | 26 | 6.1 | 12.2 | 0.00 | 0.00 | 0.00 | 57 | 1009.7 |
| 20260504224605 | 82 | 29 | 6.1 | 12.2 | 0.00 | 0.00 | 0.00 | 57 | 1009.6 |
| 20260504224526 | 82 | 30 | 6.1 | 12.2 | 0.00 | 0.00 | 0.00 | 56 | 1009.7 |
| 20260504224405 | 82 | 29 | 7.0 | 12.2 | 0.00 | 0.00 | 0.00 | 56 | 1009.6 |
| 20260504224305 | 83 | 28 | 7.0 | 12.2 | 0.00 | 0.00 | 0.00 | 56 | 1009.6 |
| 20260504224205 | 83 | 25 | 7.0 | 12.2 | 0.00 | 0.00 | 0.00 | 56 | 1009.6 |
| 20260504224105 | 83 | 24 | 7.0 | 13.0 | 0.00 | 0.00 | 0.00 | 56 | 1009.6 |
| 20260504224005 | 83 | 24 | 7.0 | 13.0 | 0.00 | 0.00 | 0.00 | 56 | 1009.6 |
| 20260504223905 | 83 | 24 | 7.0 | 13.0 | 0.00 | 0.00 | 0.00 | 56 | 1009.7 |
| 20260504223805 | 82 | 25 | 7.0 | 13.0 | 0.00 | 0.00 | 0.00 | 56 | 1009.6 |
| 20260504223704 | 82 | 27 | 7.0 | 13.0 | 0.00 | 0.00 | 0.00 | 57 | 1009.6 |
| 20260504223605 | 82 | 26 | 7.8 | 13.0 | 0.00 | 0.00 | 0.00 | 57 | 1009.5 |
| 20260504223505 | 82 | 26 | 7.8 | 14.8 | 0.00 | 0.00 | 0.00 | 56 | 1009.5 |
| 20260504223405 | 82 | 26 | 7.8 | 14.8 | 0.00 | 0.00 | 0.00 | 57 | 1009.5 |
| 20260504223305 | 82 | 25 | 7.8 | 14.8 | 0.00 | 0.00 | 0.00 | 57 | 1009.5 |
| 20260504223205 | 82 | 27 | 7.8 | 14.8 | 0.00 | 0.00 | 0.00 | 57 | 1009.6 |
| 20260504223105 | 82 | 28 | 7.8 | 14.8 | 0.00 | 0.00 | 0.00 | 57 | 1009.5 |
| 20260504223005 | 82 | 27 | 7.8 | 14.8 | 0.00 | 0.00 | 0.00 | 57 | 1009.6 |
| 20260504222905 | 82 | 27 | 8.7 | 14.8 | 0.00 | 0.00 | 0.00 | 57 | 1009.6 |
| 20260504222805 | 82 | 27 | 7.8 | 14.8 | 0.00 | 0.00 | 0.00 | 57 | 1009.6 |
| 20260504222705 | 82 | 25 | 7.8 | 14.8 | 0.00 | 0.00 | 0.00 | 57 | 1009.7 |
| 20260504222605 | 82 | 25 | 7.8 | 15.6 | 0.00 | 0.00 | 0.00 | 57 | 1009.7 |
| 20260504222504 | 82 | 26 | 7.8 | 15.6 | 0.00 | 0.00 | 0.00 | 57 | 1009.7 |
| 20260504222405 | 82 | 26 | 7.8 | 15.6 | 0.00 | 0.00 | 0.00 | 56 | 1009.7 |
| 20260504222305 | 82 | 29 | 7.8 | 15.6 | 0.00 | 0.00 | 0.00 | 56 | 1009.7 |
| 20260504222226 | 83 | 30 | 7.8 | 15.6 | 0.00 | 0.00 | 0.00 | 56 | 1009.7 |
| 20260504222105 | 83 | 25 | 7.8 | 15.6 | 0.00 | 0.00 | 0.00 | 56 | 1009.7 |
| 20260504222005 | 83 | 24 | 7.8 | 15.6 | 0.00 | 0.00 | 0.00 | 56 | 1009.8 |
| 20260504221904 | 83 | 23 | 7.8 | 15.6 | 0.00 | 0.00 | 0.00 | 56 | 1009.8 |
| 20260504221805 | 83 | 23 | 7.8 | 15.6 | 0.00 | 0.00 | 0.00 | 56 | 1009.7 |
| 20260504221705 | 83 | 26 | 7.8 | 15.6 | 0.00 | 0.00 | 0.00 | 56 | 1009.7 |
| 20260504221605 | 83 | 25 | 7.0 | 14.8 | 0.00 | 0.00 | 0.00 | 56 | 1009.6 |
| 20260504221505 | 83 | 22 | 7.0 | 14.8 | 0.00 | 0.00 | 0.00 | 56 | 1009.7 |
| 20260504221405 | 83 | 20 | 7.8 | 18.2 | 0.00 | 0.00 | 0.00 | 56 | 1009.7 |
| 20260504221305 | 83 | 21 | 7.8 | 18.2 | 0.00 | 0.00 | 0.00 | 56 | 1009.7 |
| 20260504221205 | 83 | 21 | 7.8 | 18.2 | 0.00 | 0.00 | 0.00 | 55 | 1009.8 |
| 20260504221105 | 83 | 26 | 7.8 | 18.2 | 0.00 | 0.00 | 0.00 | 56 | 1009.8 |
| 20260504221004 | 83 | 27 | 7.8 | 18.2 | 0.00 | 0.00 | 0.00 | 56 | 1009.7 |
| 20260504220905 | 83 | 27 | 8.7 | 18.2 | 0.00 | 0.00 | 0.00 | 56 | 1009.7 |
| 20260504220805 | 82 | 27 | 8.7 | 18.2 | 0.00 | 0.00 | 0.00 | 56 | 1009.7 |
| 20260504220705 | 82 | 28 | 8.7 | 18.2 | 0.00 | 0.00 | 0.00 | 56 | 1009.8 |
| 20260504220605 | 82 | 26 | 8.7 | 18.2 | 0.00 | 0.00 | 0.00 | 56 | 1009.8 |
| 20260504220505 | 82 | 29 | 8.7 | 18.2 | 0.00 | 0.00 | 0.00 | 56 | 1009.8 |
| 20260504220404 | 82 | 29 | 7.8 | 17.4 | 0.00 | 0.00 | 0.00 | 56 | 1009.9 |
| 20260504220326 | 83 | 28 | 7.8 | 15.6 | 0.00 | 0.00 | 0.00 | 56 | 1009.8 |
| 20260504220205 | 83 | 27 | 7.0 | 15.6 | 0.00 | 0.00 | 0.00 | 55 | 1009.8 |
| 20260504220105 | 83 | 24 | 7.0 | 15.6 | 0.00 | 0.00 | 0.00 | 55 | 1009.9 |
| 20260504220005 | 83 | 24 | 6.1 | 15.6 | 0.00 | 0.00 | 0.00 | 56 | 1009.9 |
| 20260504215905 | 83 | 27 | 6.1 | 15.6 | 0.00 | 0.00 | 0.00 | 55 | 1009.9 |
| 20260504215805 | 83 | 27 | 6.1 | 15.6 | 0.00 | 0.00 | 0.00 | 55 | 1009.9 |
| 20260504215705 | 83 | 25 | 6.1 | 14.8 | 0.00 | 0.00 | 0.00 | 55 | 1009.8 |
| 20260504215604 | 83 | 27 | 6.1 | 14.8 | 0.00 | 0.00 | 0.00 | 56 | 1009.7 |
| 20260504215505 | 83 | 22 | 6.1 | 14.8 | 0.00 | 0.00 | 0.00 | 56 | 1009.7 |
| 20260504215404 | 83 | 18 | 6.1 | 14.8 | 0.00 | 0.00 | 0.00 | 56 | 1009.7 |
| 20260504215305 | 83 | 17 | 6.1 | 14.8 | 0.00 | 0.00 | 0.00 | 56 | 1009.7 |
| 20260504215226 | 83 | 18 | 7.0 | 14.8 | 0.00 | 0.00 | 0.00 | 56 | 1009.7 |
| 20260504215105 | 83 | 15 | 7.0 | 15.6 | 0.00 | 0.00 | 0.00 | 56 | 1009.7 |
| 20260504215005 | 83 | 12 | 7.0 | 15.6 | 0.00 | 0.00 | 0.00 | 56 | 1009.8 |
| 20260504214905 | 83 | 7 | 7.8 | 15.6 | 0.00 | 0.00 | 0.00 | 55 | 1009.8 |
| 20260504214805 | 83 | 1 | 7.0 | 15.6 | 0.00 | 0.00 | 0.00 | 55 | 1009.7 |
| 20260504214705 | 83 | 2 | 7.0 | 15.6 | 0.00 | 0.00 | 0.00 | 55 | 1009.9 |
| 20260504214604 | 83 | 3 | 7.0 | 15.6 | 0.00 | 0.00 | 0.00 | 56 | 1009.8 |
| 20260504214526 | 83 | 7 | 7.0 | 15.6 | 0.00 | 0.00 | 0.00 | 56 | 1009.7 |
| 20260504214405 | 82 | 18 | 7.0 | 15.6 | 0.00 | 0.00 | 0.00 | 56 | 1009.7 |
| 20260504214326 | 82 | 19 | 7.8 | 15.6 | 0.00 | 0.00 | 0.00 | 55 | 1009.8 |
| 20260504214204 | 82 | 23 | 7.8 | 16.5 | 0.00 | 0.00 | 0.00 | 56 | 1009.8 |
| 20260504214105 | 82 | 27 | 7.0 | 16.5 | 0.00 | 0.00 | 0.00 | 55 | 1009.9 |
| 20260504214004 | 82 | 33 | 7.0 | 16.5 | 0.00 | 0.00 | 0.00 | 56 | 1009.9 |
| 20260504213905 | 82 | 37 | 7.0 | 16.5 | 0.00 | 0.00 | 0.00 | 56 | 1010.0 |
| 20260504213805 | 82 | 42 | 7.0 | 16.5 | 0.00 | 0.00 | 0.00 | 56 | 1009.9 |
| 20260504213705 | 82 | 42 | 7.0 | 16.5 | 0.00 | 0.00 | 0.00 | 56 | 1010.0 |
| 20260504213605 | 82 | 42 | 7.0 | 16.5 | 0.00 | 0.00 | 0.00 | 56 | 1010.1 |
| 20260504213505 | 82 | 43 | 7.0 | 16.5 | 0.00 | 0.00 | 0.00 | 56 | 1010.0 |
| 20260504213426 | 82 | 44 | 6.1 | 16.5 | 0.00 | 0.00 | 0.00 | 56 | 1010.1 |
| 20260504213305 | 83 | 43 | 6.1 | 16.5 | 0.00 | 0.00 | 0.00 | 56 | 1010.1 |
| 20260504213205 | 83 | 43 | 6.1 | 12.2 | 0.00 | 0.00 | 0.00 | 56 | 1010.1 |
| 20260504213105 | 82 | 40 | 6.1 | 12.2 | 0.00 | 0.00 | 0.00 | 56 | 1010.2 |
| 20260504213005 | 82 | 39 | 6.1 | 13.0 | 0.00 | 0.00 | 0.00 | 56 | 1010.2 |
| 20260504212925 | 82 | 40 | 6.1 | 13.0 | 0.00 | 0.00 | 0.00 | 56 | 1010.3 |
| 20260504212804 | 83 | 39 | 6.1 | 13.9 | 0.00 | 0.00 | 0.00 | 56 | 1010.3 |
| 20260504212705 | 83 | 37 | 6.1 | 13.9 | 0.00 | 0.00 | 0.00 | 56 | 1010.3 |
| 20260504212626 | 83 | 38 | 6.1 | 13.9 | 0.00 | 0.00 | 0.00 | 55 | 1010.4 |
| 20260504212504 | 83 | 38 | 7.0 | 13.9 | 0.00 | 0.00 | 0.00 | 56 | 1010.4 |
| 20260504212405 | 83 | 40 | 7.0 | 13.9 | 0.00 | 0.00 | 0.00 | 56 | 1010.4 |
| 20260504212304 | 83 | 41 | 7.0 | 13.9 | 0.00 | 0.00 | 0.00 | 56 | 1010.4 |
| 20260504212226 | 83 | 41 | 7.0 | 13.9 | 0.00 | 0.00 | 0.00 | 55 | 1010.4 |
| 20260504212105 | 83 | 40 | 7.0 | 13.9 | 0.00 | 0.00 | 0.00 | 55 | 1010.3 |
| 20260504212004 | 83 | 39 | 7.0 | 13.9 | 0.00 | 0.00 | 0.00 | 56 | 1010.3 |
| 20260504211905 | 83 | 36 | 7.0 | 13.9 | 0.00 | 0.00 | 0.00 | 56 | 1010.3 |
| 20260504211805 | 82 | 37 | 7.0 | 13.0 | 0.00 | 0.00 | 0.00 | 56 | 1010.3 |
| 20260504211705 | 82 | 38 | 6.1 | 13.0 | 0.00 | 0.00 | 0.00 | 56 | 1010.3 |
| 20260504211605 | 82 | 40 | 6.1 | 13.0 | 0.00 | 0.00 | 0.00 | 55 | 1010.4 |
| 20260504211504 | 82 | 40 | 6.1 | 13.0 | 0.00 | 0.00 | 0.00 | 55 | 1010.4 |
| 20260504211405 | 83 | 38 | 6.1 | 13.0 | 0.00 | 0.00 | 0.00 | 55 | 1010.5 |
| 20260504211305 | 82 | 37 | 6.1 | 13.9 | 0.00 | 0.00 | 0.00 | 55 | 1010.5 |
| 20260504211205 | 82 | 36 | 6.1 | 13.9 | 0.00 | 0.00 | 0.00 | 56 | 1010.5 |
| 20260504211105 | 82 | 37 | 7.0 | 13.9 | 0.00 | 0.00 | 0.00 | 56 | 1010.6 |
| 20260504211005 | 82 | 38 | 7.0 | 13.9 | 0.00 | 0.00 | 0.00 | 56 | 1010.5 |
| 20260504210904 | 82 | 37 | 7.0 | 13.9 | 0.00 | 0.00 | 0.00 | 57 | 1010.6 |
| 20260504210826 | 82 | 38 | 7.0 | 13.9 | 0.00 | 0.00 | 0.00 | 57 | 1010.6 |
| 20260504210726 | 81 | 39 | 7.8 | 15.6 | 0.00 | 0.00 | 0.00 | 57 | 1010.6 |
| 20260504210605 | 81 | 37 | 7.8 | 15.6 | 0.00 | 0.00 | 0.00 | 57 | 1010.6 |
| 20260504210504 | 81 | 37 | 7.8 | 15.6 | 0.00 | 0.00 | 0.00 | 56 | 1010.6 |
| 20260504210405 | 81 | 38 | 7.8 | 15.6 | 0.00 | 0.00 | 0.00 | 56 | 1010.7 |
| 20260504210305 | 81 | 37 | 7.8 | 15.6 | 0.00 | 0.00 | 0.00 | 57 | 1010.7 |
| 20260504210205 | 81 | 36 | 7.8 | 15.6 | 0.00 | 0.00 | 0.00 | 57 | 1010.8 |
| 20260504210126 | 81 | 37 | 7.8 | 15.6 | 0.00 | 0.00 | 0.00 | 57 | 1010.7 |
| 20260504210005 | 81 | 36 | 7.0 | 15.6 | 0.00 | 0.00 | 0.00 | 57 | 1010.7 |
| 20260504205905 | 81 | 37 | 7.0 | 15.6 | 0.00 | 0.00 | 0.00 | 57 | 1010.7 |
| 20260504205805 | 81 | 34 | 7.0 | 15.6 | 0.00 | 0.00 | 0.00 | 57 | 1010.7 |
| 20260504205705 | 81 | 33 | 7.0 | 13.0 | 0.00 | 0.00 | 0.00 | 57 | 1010.7 |
| 20260504205605 | 81 | 33 | 7.0 | 12.2 | 0.00 | 0.00 | 0.00 | 57 | 1010.8 |
| 20260504205504 | 81 | 31 | 7.0 | 11.3 | 0.00 | 0.00 | 0.00 | 57 | 1010.8 |
| 20260504205405 | 81 | 30 | 6.1 | 11.3 | 0.00 | 0.00 | 0.00 | 56 | 1010.8 |
| 20260504205305 | 81 | 31 | 6.1 | 11.3 | 0.00 | 0.00 | 0.00 | 57 | 1010.8 |
| 20260504205205 | 81 | 30 | 7.0 | 14.8 | 0.00 | 0.00 | 0.00 | 57 | 1010.8 |
| 20260504205105 | 81 | 29 | 7.0 | 14.8 | 0.00 | 0.00 | 0.00 | 56 | 1010.8 |
| 20260504205005 | 81 | 29 | 7.0 | 14.8 | 0.00 | 0.00 | 0.00 | 57 | 1010.8 |
| 20260504204905 | 81 | 27 | 7.8 | 14.8 | 0.00 | 0.00 | 0.00 | 56 | 1010.9 |
| 20260504204805 | 81 | 30 | 7.8 | 14.8 | 0.00 | 0.00 | 0.00 | 57 | 1010.8 |
| 20260504204705 | 81 | 26 | 7.8 | 14.8 | 0.00 | 0.00 | 0.00 | 56 | 1010.8 |
| 20260504204626 | 81 | 27 | 7.8 | 14.8 | 0.00 | 0.00 | 0.00 | 56 | 1010.8 |
| 20260504204505 | 81 | 25 | 8.7 | 16.5 | 0.00 | 0.00 | 0.00 | 56 | 1010.9 |
| 20260504204405 | 81 | 24 | 7.8 | 16.5 | 0.00 | 0.00 | 0.00 | 56 | 1010.8 |
| 20260504204305 | 81 | 23 | 7.8 | 16.5 | 0.00 | 0.00 | 0.00 | 56 | 1010.9 |
| 20260504204205 | 81 | 25 | 7.8 | 16.5 | 0.00 | 0.00 | 0.00 | 56 | 1010.8 |
| 20260504204105 | 81 | 24 | 7.0 | 16.5 | 0.00 | 0.00 | 0.00 | 56 | 1010.9 |
| 20260504204004 | 81 | 22 | 7.0 | 16.5 | 0.00 | 0.00 | 0.00 | 56 | 1010.9 |
| 20260504203926 | 81 | 21 | 7.0 | 16.5 | 0.00 | 0.00 | 0.00 | 56 | 1010.9 |
| 20260504203804 | 81 | 18 | 6.1 | 16.5 | 0.00 | 0.00 | 0.00 | 56 | 1010.9 |
| 20260504203726 | 81 | 20 | 6.1 | 16.5 | 0.00 | 0.00 | 0.00 | 56 | 1011.0 |
| 20260504203625 | 82 | 24 | 6.1 | 16.5 | 0.00 | 0.00 | 0.00 | 56 | 1011.0 |
| 20260504203504 | 81 | 27 | 6.1 | 15.6 | 0.00 | 0.00 | 0.00 | 56 | 1011.0 |
| 20260504203405 | 81 | 26 | 7.0 | 15.6 | 0.00 | 0.00 | 0.00 | 56 | 1011.0 |
| 20260504203305 | 81 | 28 | 7.0 | 15.6 | 0.00 | 0.00 | 0.00 | 56 | 1011.1 |
| 20260504203204 | 81 | 27 | 7.0 | 15.6 | 0.00 | 0.00 | 0.00 | 56 | 1011.1 |
| 20260504203126 | 81 | 29 | 7.8 | 15.6 | 0.00 | 0.00 | 0.00 | 56 | 1011.1 |
| 20260504203026 | 81 | 30 | 7.8 | 15.6 | 0.00 | 0.00 | 0.00 | 56 | 1011.2 |
| 20260504202905 | 81 | 33 | 7.8 | 15.6 | 0.00 | 0.00 | 0.00 | 56 | 1011.2 |
| 20260504202805 | 81 | 34 | 7.8 | 15.6 | 0.00 | 0.00 | 0.00 | 56 | 1011.2 |
| 20260504202704 | 81 | 33 | 7.0 | 15.6 | 0.00 | 0.00 | 0.00 | 55 | 1011.2 |
| 20260504202604 | 82 | 32 | 7.0 | 14.8 | 0.00 | 0.00 | 0.00 | 55 | 1011.3 |
| 20260504202505 | 82 | 31 | 7.0 | 14.8 | 0.00 | 0.00 | 0.00 | 55 | 1011.2 |
| 20260504202405 | 82 | 31 | 7.0 | 14.8 | 0.00 | 0.00 | 0.00 | 55 | 1011.3 |
| 20260504202305 | 82 | 30 | 7.0 | 14.8 | 0.00 | 0.00 | 0.00 | 55 | 1011.3 |
| 20260504202205 | 82 | 30 | 7.0 | 16.5 | 0.00 | 0.00 | 0.00 | 55 | 1011.3 |
| 20260504202105 | 82 | 27 | 7.0 | 16.5 | 0.00 | 0.00 | 0.00 | 55 | 1011.4 |
| 20260504202004 | 82 | 25 | 7.0 | 16.5 | 0.00 | 0.00 | 0.00 | 55 | 1011.4 |
| 20260504201905 | 82 | 24 | 7.0 | 16.5 | 0.00 | 0.00 | 0.00 | 55 | 1011.4 |
| 20260504201805 | 82 | 25 | 7.8 | 16.5 | 0.00 | 0.00 | 0.00 | 56 | 1011.5 |
| 20260504201705 | 82 | 23 | 7.8 | 16.5 | 0.00 | 0.00 | 0.00 | 55 | 1011.4 |
| 20260504201605 | 82 | 24 | 7.8 | 16.5 | 0.00 | 0.00 | 0.00 | 55 | 1011.5 |
| 20260504201504 | 82 | 26 | 7.8 | 16.5 | 0.00 | 0.00 | 0.00 | 55 | 1011.5 |
| 20260504201426 | 82 | 25 | 7.8 | 16.5 | 0.00 | 0.00 | 0.00 | 55 | 1011.5 |
| 20260504201305 | 82 | 27 | 7.8 | 16.5 | 0.00 | 0.00 | 0.00 | 55 | 1011.5 |